ECMWFFLT1_con_mucape_000.txt.gz
CAPE
0 0 2 10 12 0 4 5 4 28 19 14 9 6 7 3 12 2 0 0 0 0 0 0 0 0 0 4 16 32 18 42 64 202 282 64 268 436 673 694 624 398 741 681 427 336 373 232 273 762 564 390 271 208 447 465 747 720 1028 967 800 769 855
1 6 0 0 3 7 7 2 3 3 12 3 0 1 0 0 0 0 0 0 0 0 0 0 0 0 1 7 10 17 25 33 18 12 11 6 24 84 49 94 118 120 279 474 352 227 207 156 109 309 336 520 274 232 632 698 598 679 723 667 591 375 649
0 0 0 1 18 12 8 1 0 0 0 0 0 0 0 0 0 0 0 0 0 0 0 0 0 0 0 0 0 4 6 6 3 11 19 8 2 8 7 8 11 16 26 60 71 23 78 157 47 51 53 80 237 457 197 7 3 146 342 457 568 214 137
0 0 0 12 14 4 5 0 0 0 0 0 0 0 0 0 0 0 0 0 0 0 0 0 0 0 0 0 0 0 0 0 0 0 0 0 0 0 0 0 0 0 0 1 0 0 0 0 1 2 3 1 1 4 30 26 62 83 7 2 8 13 290
0 0 0 5 2 0 0 0 0 0 0 0 0 0 0 0 0 0 0 0 0 0 0 0 0 0 0 0 0 0 0 0 0 0 0 0 0 0 0 0 0 0 0 0 0 0 0 0 0 0 0 0 0 0 0 0 0 1 0 1 9 29 81
12 1 0 1 14 0 0 0 0 0 0 0 0 0 0 0 0 0 0 0 0 0 0 0 0 0 0 0 0 0 0 0 0 0 0 0 0 0 0 0 0 0 0 0 0 0 0 0 0 0 0 0 0 0 0 0 0 0 0 1 38 37 83
14 8 6 4 17 1 0 0 0 0 0 0 0 0 0 0 0 0 0 0 0 0 0 0 0 0 0 0 0 0 0 0 0 0 0 0 0 0 0 0 0 0 0 0 0 0 0 0 0 0 0 0 0 0 0 0 0 0 0 1 18 37 25
20 8 10 7 24 13 2 2 0 0 0 0 0 0 0 0 0 0 0 0 0 0 0 0 0 0 0 0 0 0 0 0 0 0 0 0 0 0 0 0 0 0 0 0 0 0 0 0 0 0 0 0 0 0 0 0 0 0 0 0 0 0 0
63 3 1 2 22 78 28 2 0 0 0 0 0 2 0 0 0 0 0 0 0 0 0 0 0 0 0 0 0 0 0 0 0 0 0 0 0 0 0 0 0 0 0 0 0 0 0 0 0 0 0 0 0 0 0 0 0 0 0 0 0 0 0
829 406 42 109 309 391 217 91 1 0 0 0 0 5 0 0 0 0 0 0 0 0 0 0 0 0 0 0 0 0 0 0 0 0 0 0 0 0 0 0 0 0 0 0 0 0 0 0 0 0 0 0 0 0 0 0 0 0 0 0 0 0 0
804 915 692 610 742 670 577 417 133 99 6 0 3 8 49 36 3 0 0 0 0 0 0 0 0 0 0 0 0 0 0 0 0 0 0 0 0 0 0 0 0 0 0 0 0 0 0 0 0 0 0 0 0 0 0 0 0 0 0 0 0 0 11
873 822 900 998 1016 827 785 458 400 297 169 83 34 34 90 77 47 15 1 0 0 0 0 0 0 0 0 0 0 0 0 0 0 0 0 0 0 0 0 0 0 0 0 0 0 0 0 0 0 0 0 0 0 0 0 0 0 0 0 0 0 0 0
690 644 896 1144 1065 951 793 621 530 456 374 202 39 62 56 58 83 56 18 0 0 0 0 0 0 0 0 0 0 0 0 0 0 0 0 0 0 0 0 0 0 0 0 0 0 0 0 0 0 0 0 0 0 0 0 0 0 0 0 0 0 0 0
947 832 909 1066 1106 976 836 705 608 582 520 362 69 50 32 60 58 75 32 11 0 0 0 0 0 0 0 0 0 0 0 0 0 0 0 0 0 0 0 0 0 0 0 0 0 0 0 0 0 0 0 0 0 0 0 0 0 0 0 0 0 0 0
978 952 1004 1119 1118 919 911 777 817 705 621 544 195 113 28 77 89 69 39 13 0 0 0 0 0 0 0 0 0 0 0 0 0 0 0 0 0 0 0 0 0 0 0 0 0 0 0 0 0 0 0 0 0 0 0 0 0 0 0 0 0 0 0
622 878 974 1056 1088 960 888 906 820 841 727 630 383 231 43 139 115 63 70 33 2 0 0 0 0 0 0 0 0 0 0 0 0 0 0 0 0 0 0 0 0 0 0 0 0 0 0 0 0 0 0 0 0 0 0 0 0 0 0 0 0 0 0
873 834 942 849 939 1077 914 871 851 811 697 656 574 386 114 249 117 72 88 53 10 0 0 0 0 0 0 0 0 0 0 0 0 0 0 0 0 0 0 0 0 0 0 0 0 0 0 0 0 0 0 0 0 0 0 0 0 0 0 0 0 0 0
863 921 908 844 791 800 831 798 817 693 654 638 633 516 307 386 135 106 163 77 8 0 0 0 0 0 0 0 0 0 0 0 0 0 0 0 0 0 0 0 0 0 0 0 0 0 0 0 0 0 0 0 0 0 0 0 0 0 0 0 0 0 0
902 957 979 925 830 622 594 656 783 735 456 527 630 589 547 368 238 142 211 58 1 0 0 0 0 0 0 0 0 0 0 0 0 0 0 0 0 0 0 0 0 0 0 0 0 0 0 0 0 0 0 0 0 0 0 0 0 0 0 0 0 0 0
1002 1094 1141 1132 1054 888 826 728 707 789 662 560 616 655 570 161 115 196 152 29 0 0 0 0 0 0 0 0 0 0 0 0 0 0 0 0 0 0 0 0 0 0 0 0 0 0 0 0 0 0 0 0 0 0 0 0 0 0 0 0 0 0 0
848 906 972 994 990 1071 1024 886 832 709 679 681 645 576 140 38 234 78 124 29 0 0 0 0 0 0 0 0 0 0 0 0 0 0 0 0 0 0 0 0 0 0 0 0 0 0 0 0 0 0 0 0 0 0 0 0 0 0 0 0 0 0 0
537 721 762 789 862 884 943 923 910 807 735 714 555 568 392 146 196 80 119 20 2 0 0 0 0 0 0 0 0 0 0 0 0 0 0 0 0 0 0 0 0 0 0 0 0 0 0 0 0 0 0 0 0 0 0 0 0 0 0 0 0 0 0
373 486 607 637 710 825 850 792 844 840 810 776 647 610 419 343 299 89 157 162 214 80 46 40 28 0 0 0 0 0 0 0 0 0 0 0 0 0 0 0 0 0 0 0 0 0 0 0 0 0 0 0 0 0 0 0 0 0 0 0 0 0 0
88 317 438 538 641 690 716 706 704 739 743 724 694 518 469 496 405 77 3 255 252 216 161 134 35 38 3 0 0 0 0 0 0 0 0 0 0 0 0 0 0 0 0 0 0 0 0 0 0 0 0 0 0 0 0 0 0 0 0 0 0 0 0
1 35 329 381 506 638 626 636 628 624 655 467 469 553 518 485 485 426 192 216 285 193 100 33 52 23 0 0 0 0 0 0 0 0 0 0 0 0 0 0 0 0 0 0 0 0 0 0 0 0 0 0 0 0 0 0 0 0 0 0 0 0 0
0 0 137 275 378 554 498 483 549 519 374 259 424 607 627 627 548 329 274 330 306 83 142 162 76 74 30 1 0 0 0 0 0 0 0 0 0 0 0 0 0 0 0 0 0 0 0 0 0 0 0 0 0 0 0 0 0 0 0 0 0 0 0
0 0 6 194 338 347 343 329 428 453 375 401 630 704 709 755 749 577 348 260 242 298 224 218 80 54 8 0 0 0 0 0 0 0 0 0 0 0 0 0 0 0 0 0 0 0 0 0 0 0 0 0 0 0 0 0 0 0 0 0 0 0 0
0 0 0 34 214 255 270 265 306 334 325 306 506 718 798 826 843 792 659 537 424 306 434 296 428 192 1 0 0 0 0 0 0 0 0 0 0 0 0 0 0 0 0 0 0 0 0 0 0 0 0 0 0 0 0 0 1 0 1 0 0 0 0
0 0 0 61 153 198 269 256 234 263 274 253 217 397 516 494 510 520 513 397 393 253 398 351 120 1 20 0 0 0 0 0 0 0 0 0 0 0 0 0 0 0 0 0 0 0 0 0 0 0 0 0 0 0 0 0 0 0 0 1 0 2 1
0 0 0 31 122 233 221 253 187 214 214 222 189 308 333 337 312 256 240 218 126 214 180 224 126 76 10 0 0 0 0 0 0 0 0 0 0 0 0 0 0 0 0 0 0 0 0 0 0 0 0 0 0 0 0 0 0 0 0 0 0 0 0
0 0 5 74 121 210 194 186 155 126 146 235 234 125 0 155 163 213 126 3 44 148 155 179 85 29 10 1 0 0 0 0 0 0 0 0 0 0 0 0 0 0 0 0 0 0 0 0 0 0 0 0 0 0 0 0 0 0 0 0 0 0 0
2 7 22 76 135 187 158 132 139 158 203 270 311 179 53 141 169 11 71 15 27 21 59 21 7 10 2 0 0 0 0 0 0 0 0 0 0 0 0 0 0 0 0 0 0 0 0 0 0 0 0 0 0 0 0 2 0 0 0 2 2 2 1
6 23 73 104 129 158 158 165 190 160 246 290 325 144 0 8 79 0 3 0 2 1 5 3 1 4 0 0 0 0 0 0 0 0 0 0 0 0 0 0 0 0 0 0 0 0 0 0 0 0 1 2 1 0 0 0 2 3 3 2 0 3 3
10 46 143 203 134 110 110 156 246 323 335 283 134 1 1 93 0 0 0 0 0 2 0 0 1 0 0 0 0 0 0 0 0 0 0 0 0 0 0 0 0 0 0 0 0 0 0 0 0 0 1 5 2 1 0 0 1 0 2 4 3 3 4
31 104 174 143 122 132 135 190 175 167 114 133 193 195 138 121 0 0 4 16 0 0 0 0 0 0 0 0 0 0 0 0 0 0 0 0 0 0 0 0 0 0 0 0 0 0 0 0 0 0 0 0 0 0 0 4 2 0 2 5 3 3 5
63 131 233 226 150 135 112 95 78 156 30 194 221 98 0 0 0 0 1 19 0 0 0 0 2 2 0 0 0 0 0 0 0 0 0 0 0 0 0 0 0 0 0 0 0 0 0 0 0 0 0 0 0 0 0 2 5 0 4 1 2 1 2
76 159 234 213 151 142 92 9 105 193 190 226 220 153 1 0 0 0 0 0 0 0 0 0 0 0 0 0 0 0 0 0 0 0 0 0 0 0 0 0 0 0 0 0 0 0 0 0 0 0 0 0 0 0 2 0 0 1 0 0 1 1 1

ECMWFFLT1_con_mucape_003.txt.gz
CAPE
2 19 3 2 0 0 4 11 18 48 7 16 9 0 1 0 0 0 0 0 0 0 0 0 1 1 8 10 8 13 22 26 68 310 301 485 436 506 379 200 310 271 236 85 71 184 290 276 505 985 964 597 276 227 208 334 742 335 655 891 266 362 347
1 0 2 0 1 4 5 12 10 2 1 1 3 0 0 0 0 0 0 0 0 0 0 0 0 1 8 11 13 18 30 35 49 54 37 36 26 52 103 206 421 203 204 178 184 246 162 192 250 187 316 844 809 328 130 273 397 368 984 1139 776 406 710
1 0 0 3 7 2 6 0 0 0 0 0 0 0 0 0 0 0 0 0 0 0 0 0 0 0 0 0 7 17 17 26 27 37 35 19 10 12 5 5 38 23 204 151 66 21 40 174 32 14 56 74 200 701 384 64 22 2 0 25 170 21 13
2 0 3 1 3 13 0 0 0 0 0 0 0 0 0 0 0 0 0 0 0 0 0 0 0 0 0 0 0 0 0 0 0 0 0 0 0 0 0 0 0 0 2 2 4 1 0 0 0 0 0 0 0 0 172 328 98 5 1 0 0 0 0
0 0 10 1 0 22 3 0 1 0 0 0 0 0 0 0 0 0 0 0 0 0 0 0 0 0 0 0 0 0 0 0 0 0 0 0 0 0 0 0 0 0 0 0 0 0 0 0 0 0 0 0 0 0 0 0 0 0 1 0 0 0 0
0 0 56 2 1 6 2 0 0 0 0 0 0 0 0 0 0 0 0 0 0 0 0 0 0 0 0 0 0 0 0 0 0 0 0 0 0 0 0 0 0 0 0 0 0 0 0 0 0 0 0 0 0 0 0 0 0 0 0 0 0 0 2
2 12 6 15 11 0 1 0 0 1 0 0 0 0 0 0 0 0 0 0 0 0 0 0 0 0 0 0 0 0 0 0 0 0 0 0 0 0 0 0 0 0 0 0 0 0 0 0 0 0 0 0 0 0 0 0 0 0 0 0 0 0 0
66 16 2 20 36 3 2 2 0 0 4 6 1 0 0 0 0 0 0 0 0 0 0 0 0 0 0 0 0 0 0 0 0 0 0 0 0 0 0 0 0 0 0 0 0 0 0 0 0 0 0 0 0 0 0 0 0 0 0 0 0 0 0
46 47 5 2 68 53 31 37 0 0 3 8 34 30 0 0 0 0 0 0 0 0 0 0 0 0 0 0 0 0 0 0 0 0 0 0 0 0 0 0 0 0 0 0 0 0 0 0 0 0 0 0 0 0 0 0 0 0 0 0 0 0 3
231 96 28 50 134 133 87 95 8 1 7 33 77 116 1 4 12 1 0 0 0 0 0 0 0 0 0 0 0 0 0 0 0 0 0 0 0 0 0 0 0 0 0 0 0 0 0 0 0 0 0 0 0 0 0 0 0 0 0 0 0 0 0
456 300 87 48 76 212 193 111 44 8 8 14 67 226 30 31 36 19 11 0 0 0 0 0 0 0 0 0 0 0 0 0 0 0 0 0 0 0 0 0 0 0 0 0 0 0 0 0 0 0 0 0 0 0 0 0 0 0 0 0 0 0 0
677 606 472 184 114 269 264 207 105 88 22 12 34 211 67 94 67 56 75 12 0 0 0 0 0 0 0 0 0 0 0 0 0 0 0 0 0 0 0 0 0 0 0 0 0 0 0 0 0 0 0 0 0 0 0 0 0 0 0 0 0 0 0
630 421 445 425 359 159 131 148 115 179 152 14 52 162 106 129 91 71 99 39 16 0 0 0 0 0 0 0 0 0 0 0 0 0 0 0 0 0 0 0 0 0 0 0 0 0 0 0 0 0 0 0 0 0 0 0 0 0 0 0 0 0 0
538 304 436 319 352 594 430 153 129 162 165 210 108 152 117 181 109 102 92 71 43 1 0 0 0 0 0 0 0 0 0 0 0 0 0 0 0 0 0 0 0 0 0 0 0 0 0 0 0 0 0 0 0 0 0 0 0 0 0 0 0 0 0
804 1489 1394 1315 844 812 671 344 344 47 104 309 147 158 146 182 156 147 120 111 72 6 0 0 0 0 0 0 0 0 0 0 0 0 0 0 0 0 0 0 0 0 0 0 0 0 0 0 0 0 0 0 0 0 0 0 0 0 0 0 0 0 0
697 784 1300 1056 904 840 348 406 824 780 162 206 351 159 77 206 216 224 159 149 100 52 6 0 0 0 0 0 0 0 0 0 0 0 0 0 0 0 0 0 0 0 0 0 0 0 0 0 0 0 0 0 0 0 0 0 0 0 0 0 0 0 0
1087 817 885 793 630 732 1122 779 553 507 590 765 476 305 12 11 237 294 243 178 140 83 38 9 0 0 0 0 0 0 0 0 0 0 0 0 0 0 0 0 0 0 0 0 0 0 0 0 0 0 0 0 0 0 0 0 0 0 0 0 0 0 0
994 1109 1142 1111 1234 1213 1089 914 858 564 783 624 506 777 393 93 258 68 134 202 177 138 103 36 8 0 0 0 0 0 0 0 0 0 0 0 0 0 0 0 0 0 0 0 0 0 0 0 0 0 0 0 0 0 0 0 0 0 0 0 0 0 0
989 936 1183 1024 1151 1141 1050 1024 1014 993 645 834 559 445 549 377 296 149 204 260 272 230 41 12 6 0 0 0 0 0 0 0 0 0 0 0 0 0 0 0 0 0 0 0 0 0 0 0 0 0 0 0 0 0 0 0 0 0 0 0 0 0 0
863 1129 1188 1167 1019 1082 1178 1161 1025 764 696 662 678 661 489 393 602 124 218 305 115 33 22 15 19 18 7 0 0 0 0 0 0 0 0 0 0 0 0 0 0 0 0 0 0 0 0 0 0 0 0 0 0 0 0 0 0 0 0 0 0 0 0
298 607 587 720 909 1238 1248 1049 1185 1340 1211 973 873 674 409 387 494 515 177 100 469 141 36 45 53 38 1 11 0 0 0 0 0 0 0 0 0 0 0 0 0 0 0 0 0 0 0 0 0 0 0 0 0 0 0 0 0 0 0 0 0 0 0
208 316 321 523 628 754 682 1045 1409 1137 830 838 938 881 666 646 641 333 279 313 407 441 180 116 38 14 74 72 0 6 0 0 0 0 0 0 0 0 0 0 0 0 0 0 0 0 0 0 0 0 0 0 0 0 0 0 0 0 0 0 0 0 0
13 85 228 414 396 449 596 788 845 965 1063 1074 1030 1009 1023 938 666 630 653 293 608 340 171 123 29 195 82 56 5 0 0 0 0 0 0 0 0 0 0 0 0 0 0 0 0 0 0 0 0 0 0 0 0 0 0 0 0 0 0 0 0 0 0
0 0 14 172 249 347 456 644 790 817 861 986 963 690 917 940 966 781 618 719 410 313 209 84 31 238 118 72 58 29 26 0 17 22 0 0 0 0 0 0 0 0 0 0 0 0 0 0 0 0 0 0 0 0 0 0 0 0 0 0 0 0 0
0 0 0 7 105 167 221 368 600 644 763 832 895 931 931 926 955 849 663 598 309 284 141 0 131 111 66 73 68 62 38 42 48 0 0 0 0 0 0 0 0 0 0 0 0 0 0 0 0 0 0 0 0 0 0 0 0 0 0 0 0 0 0
0 0 0 0 15 222 316 358 316 398 563 640 610 598 608 736 693 596 494 407 153 58 27 166 191 103 118 63 69 92 101 35 20 49 0 0 0 0 0 0 0 0 0 0 0 0 0 0 0 0 0 0 0 0 0 0 0 0 0 0 0 0 0
0 0 0 0 0 11 256 415 389 370 372 464 474 447 476 571 618 554 408 318 226 206 168 114 184 147 95 139 96 44 27 11 45 17 7 0 0 0 0 0 0 0 0 0 0 0 0 0 0 0 0 0 0 0 0 0 0 0 0 0 0 0 0
0 0 0 0 0 3 33 241 358 357 295 351 482 462 424 536 541 420 417 100 93 0 0 164 157 32 67 108 106 82 70 77 56 40 2 2 0 0 0 0 0 0 0 0 0 0 0 0 0 0 0 0 0 0 0 0 0 0 0 0 0 0 0
0 0 0 0 0 0 35 257 388 420 306 270 287 309 337 396 504 486 106 0 0 2 173 254 232 218 143 9 88 82 46 34 16 6 0 0 0 0 0 0 0 0 0 0 0 0 0 0 0 0 0 0 0 0 0 0 0 1 0 0 0 0 1
0 0 0 0 1 12 47 172 360 325 356 375 359 292 197 256 332 296 48 42 0 0 139 251 228 133 140 137 119 89 43 45 23 0 4 2 0 0 0 0 0 0 0 0 0 0 0 0 0 0 0 0 0 0 0 0 0 0 0 0 0 0 0
0 0 0 0 0 15 64 175 311 310 342 308 342 311 227 182 252 157 39 2 0 0 39 4 0 0 0 0 47 46 21 15 14 10 0 0 0 0 0 0 0 0 0 0 0 0 0 0 0 0 0 0 0 0 0 0 0 0 0 0 0 0 0
9 14 10 9 20 42 62 154 291 289 256 279 241 232 161 147 76 2 2 2 0 0 0 0 0 0 23 30 30 15 4 6 1 0 0 0 0 0 0 1 0 0 0 0 0 0 0 0 0 0 0 0 0 0 0 0 0 0 0 0 0 8 0
3 21 31 20 41 52 31 65 227 258 222 177 129 124 204 58 11 1 0 0 0 2 0 7 0 0 13 29 12 7 1 0 0 0 0 0 0 0 0 0 2 0 0 0 0 0 0 0 0 0 0 0 0 0 0 0 0 0 0 0 0 0 0
2 16 43 47 26 42 62 58 156 216 206 181 198 171 56 1 0 0 0 0 0 2 2 7 3 29 33 19 3 1 0 0 0 0 0 2 0 0 0 0 0 0 0 0 0 0 0 0 0 0 0 0 0 0 0 0 0 0 0 0 1 0 0
2 36 64 59 59 45 84 115 122 170 316 258 338 213 60 0 0 0 0 0 2 5 0 9 9 10 5 2 2 1 1 0 0 0 0 0 0 0 0 0 0 0 0 0 0 0 0 0 0 0 0 0 0 0 0 0 0 0 0 0 0 0 0
0 2 64 124 150 186 135 101 149 169 201 229 154 86 1 0 0 0 0 0 0 2 4 7 7 3 1 4 3 0 2 0 0 0 0 0 0 0 0 0 0 0 0 0 0 0 0 0 0 0 0 0 0 0 0 0 0 0 1 1 0 3 0
0 0 30 134 207 234 234 192 210 241 185 82 88 0 4 16 13 9 6 6 6 9 7 7 4 2 0 0 1 4 3 2 0 0 0 0 0 0 0 0 0 0 0 0 0 0 0 0 0 0 0 0 0 0 0 2 3 2 0 0 0 0 0

ECMWFFLT1_con_mucape_006.txt.gz
CAPE
415 141 228 164 244 148 291 138 165 172 29 70 63 0 0 0 0 0 0 1 0 0 0 4 36 29 45 9 63 140 152 370 450 204 129 63 165 40 165 203 223 343 358 353 261 361 195 127 444 580 768 377 330 232 155 71 275 1067 889 1002 1099 710 575
150 152 16 1 41 277 279 404 176 26 97 18 0 0 0 0 0 0 0 0 0 0 0 0 2 18 62 79 79 104 85 56 81 126 130 121 156 284 265 256 208 173 368 301 346 107 150 39 38 92 276 873 615 431 252 170 100 275 579 833 827 814 564
51 6 0 88 110 260 327 61 12 18 2 0 0 0 0 0 0 0 0 0 0 0 0 0 0 0 0 2 22 23 21 7 4 0 0 0 0 0 0 458 139 187 248 231 230 181 110 30 46 1 17 18 7 646 586 172 22 8 11 6 37 308 297
60 144 76 72 71 96 9 66 32 46 15 0 0 0 0 0 0 0 0 0 0 0 0 0 0 0 0 0 0 0 0 0 0 0 0 0 0 0 0 0 0 0 0 0 0 0 0 0 0 0 0 0 0 0 56 167 142 27 3 1 14 11 42
186 227 98 101 87 46 65 125 61 29 0 0 0 0 0 0 0 0 0 0 0 0 0 0 0 0 0 0 0 0 0 0 0 0 0 0 0 0 0 0 0 0 0 0 0 0 0 0 0 0 0 0 0 0 0 0 0 0 12 7 2 0 0
281 295 164 251 116 171 114 123 14 8 0 0 0 0 0 0 0 0 0 0 0 0 0 0 0 0 0 0 0 0 0 0 0 0 0 0 0 0 0 0 0 0 0 0 0 0 0 0 0 0 0 0 0 0 0 0 0 0 0 0 0 0 0
323 512 202 352 291 267 163 256 125 30 11 20 5 1 0 0 0 0 0 0 0 0 0 0 0 0 0 0 0 0 0 0 0 0 0 0 0 0 0 0 0 0 0 0 0 0 0 0 0 0 0 0 0 0 0 0 0 0 0 0 0 0 0
384 459 415 387 310 477 270 289 272 200 134 58 35 14 0 28 8 0 0 0 0 0 0 0 0 0 0 0 0 0 0 0 0 0 0 0 0 0 0 0 0 0 0 0 0 0 0 0 0 0 0 0 0 0 0 0 0 0 0 0 0 0 0
239 328 426 384 372 637 498 281 376 482 307 250 116 16 10 118 9 0 0 0 0 0 0 0 0 0 0 0 0 0 0 0 0 0 0 0 0 0 0 0 0 0 0 0 0 0 0 0 0 0 0 0 0 0 0 0 0 0 0 0 0 0 0
322 399 372 642 481 720 893 277 403 403 654 431 266 48 55 187 65 2 0 0 0 0 0 0 0 0 0 0 0 0 0 0 0 0 0 0 0 0 0 0 0 0 0 0 0 0 0 0 0 0 0 0 0 0 0 0 0 0 0 0 0 0 0
658 706 627 1056 822 670 1040 406 636 239 814 600 332 148 114 287 161 41 35 5 1 0 0 0 0 0 0 0 0 0 0 0 0 0 0 0 0 0 0 0 0 0 0 0 0 0 0 0 0 0 0 0 0 0 0 0 0 0 0 0 0 0 0
1015 1008 834 1123 886 735 808 727 538 266 611 546 377 227 187 242 227 137 142 12 19 3 0 0 0 0 0 0 0 0 0 0 0 0 0 0 0 0 0 0 0 0 0 0 0 0 0 0 0 0 0 0 0 0 0 0 0 0 0 0 0 0 0
1014 1191 1249 1586 1152 574 814 646 928 333 448 314 559 362 203 211 228 180 216 68 30 5 0 0 0 0 0 0 0 0 0 0 0 0 0 0 0 0 0 0 0 0 0 0 0 0 0 0 0 0 0 0 0 0 0 0 0 0 0 0 0 0 0
1430 924 1141 930 865 1199 927 697 585 697 459 260 474 449 268 270 205 167 204 152 52 0 0 0 0 0 0 0 0 0 0 0 0 0 0 0 0 0 0 0 0 0 0 0 0 0 0 0 0 0 0 0 0 0 0 0 0 0 0 0 0 0 0
1791 1775 1039 1011 1133 1330 1124 1209 838 1010 660 503 519 404 313 354 270 212 160 193 135 25 2 0 0 0 0 0 0 0 0 0 0 0 0 0 0 0 0 0 0 0 0 0 0 0 0 0 0 0 0 0 0 0 0 0 0 0 0 0 0 0 0
1652 1841 1760 1639 1419 1064 1028 1108 1036 993 1056 987 586 442 281 352 354 279 231 230 187 102 28 8 0 2 0 0 0 0 0 0 0 0 0 0 0 0 0 0 0 0 0 0 0 0 0 0 0 0 0 0 0 0 0 0 0 0 0 0 0 0 0
1125 1356 1361 1293 1574 1152 1171 970 1007 982 843 729 873 1055 510 248 194 275 273 251 240 190 92 42 14 7 0 0 0 0 0 0 0 0 0 0 0 0 0 0 0 0 0 0 0 0 0 0 0 0 0 0 0 0 0 0 0 0 0 0 0 0 0
1383 1427 1458 1505 1234 800 758 700 690 663 936 918 1012 923 893 811 354 197 348 313 248 219 159 73 24 16 3 4 0 0 0 0 0 0 0 0 0 0 0 0 0 0 0 0 0 0 0 0 0 0 0 0 0 0 0 0 0 0 0 0 0 0 0
1298 1367 1328 1111 874 714 564 150 540 696 645 810 674 966 1114 899 591 423 306 296 272 203 166 136 142 131 2 10 17 15 6 0 0 0 0 0 0 0 0 0 0 0 0 0 0 0 0 0 0 0 0 0 0 0 0 0 0 0 0 0 0 0 0
987 1159 970 813 728 706 676 645 573 603 605 103 730 235 580 628 636 577 525 450 292 299 171 178 171 154 147 110 14 25 26 28 8 0 0 0 0 0 0 0 0 0 0 0 0 0 0 0 0 0 0 0 0 0 0 0 0 0 0 0 0 0 0
595 1133 1195 641 382 466 478 596 494 500 413 399 620 493 362 526 556 382 408 220 381 416 367 280 192 184 178 172 0 0 0 0 0 9 6 12 0 0 0 0 0 0 0 0 0 0 0 0 0 0 0 0 0 0 0 0 0 0 0 0 0 0 0
235 111 420 635 627 678 621 657 614 546 615 550 476 548 465 452 546 635 732 822 669 469 403 298 251 184 163 143 4 123 109 0 0 5 16 24 14 0 0 0 0 0 0 0 0 0 0 0 0 0 0 0 0 0 0 0 0 0 0 0 0 0 0
356 350 387 479 290 493 682 596 637 702 1098 1168 1015 858 843 724 649 692 704 681 560 580 512 232 95 4 12 42 12 22 2 0 0 9 30 42 65 35 12 0 0 0 0 0 0 0 0 0 0 0 0 0 0 0 0 0 0 0 0 0 0 0 0
0 0 0 35 284 520 468 688 878 835 1190 1159 1221 1224 1057 1208 1023 872 803 718 561 591 427 218 236 205 14 0 27 0 0 35 0 0 0 41 52 33 2 9 0 0 0 0 0 0 0 0 0 0 0 0 0 0 0 0 0 0 0 0 0 0 0
0 0 0 0 0 68 181 170 224 588 840 897 1043 996 1288 1121 1029 1011 982 857 729 852 463 388 315 270 88 73 61 0 60 0 0 49 29 4 12 6 18 6 0 0 0 0 0 0 0 0 0 0 0 0 0 0 0 0 0 0 0 0 0 0 0
0 0 0 0 0 0 9 216 343 418 528 758 807 788 902 959 904 746 874 936 720 622 597 555 437 322 234 74 10 8 58 10 101 21 41 43 43 36 46 20 8 0 0 0 0 0 0 0 0 0 0 0 0 0 0 0 0 0 0 0 0 0 0
0 0 0 0 0 0 0 12 412 580 488 488 673 709 661 714 614 638 757 612 607 648 661 642 610 463 339 289 234 189 63 2 58 19 39 56 49 28 29 16 7 2 0 0 0 0 0 0 0 0 0 0 0 0 0 0 0 0 0 0 0 0 0
0 0 0 0 0 0 2 38 142 411 543 492 500 654 538 536 550 523 619 241 280 413 482 533 523 454 387 334 235 135 21 0 0 2 3 0 0 0 14 12 4 0 0 0 0 0 0 0 0 0 0 0 0 0 0 0 0 0 0 0 0 0 0
0 0 0 0 0 0 1 25 109 422 430 455 421 420 565 498 543 618 407 360 332 327 355 341 332 315 284 257 65 116 10 0 0 6 0 0 0 0 2 6 0 0 0 0 0 0 0 0 0 0 0 0 0 0 0 0 0 0 0 0 0 0 0
0 0 0 0 0 6 19 81 157 251 381 500 477 397 320 365 329 318 13 0 135 214 291 323 279 231 197 165 0 0 0 6 29 8 0 5 2 4 3 1 0 0 0 0 0 0 0 0 0 0 0 0 0 0 0 0 0 0 0 0 0 0 0
5 3 2 0 0 9 21 35 70 213 331 360 370 320 335 265 226 173 0 0 0 191 234 193 30 42 158 128 82 59 23 8 4 4 3 2 0 0 0 0 0 2 0 0 0 0 0 0 0 0 0 0 0 0 0 0 0 0 0 0 0 0 0
3 7 9 22 51 51 62 79 94 235 387 370 318 311 121 166 260 32 0 0 0 162 153 0 0 0 0 12 7 8 3 4 3 9 9 6 4 2 3 5 5 2 0 0 0 0 0 0 0 0 0 0 0 0 0 0 0 0 0 0 0 0 0
0 7 24 76 74 98 90 77 74 114 298 251 169 191 168 84 128 0 0 0 0 0 4 0 0 0 0 0 0 0 4 8 11 3 1 0 0 0 7 9 6 5 0 0 0 0 0 0 0 0 0 0 0 0 0 0 0 0 0 0 0 0 0
13 16 21 81 138 114 97 111 145 144 238 278 262 245 308 163 48 0 0 0 0 0 0 0 0 0 0 0 2 0 10 12 12 9 4 4 3 6 4 3 2 0 0 0 0 0 0 0 0 0 0 0 0 0 0 0 0 0 0 0 0 0 0
4 25 31 48 121 124 109 129 138 219 155 190 339 273 243 193 118 74 0 0 0 0 0 0 0 0 0 0 3 3 13 21 24 26 20 15 10 9 10 6 2 1 0 0 0 0 0 0 0 0 0 0 0 0 0 0 0 0 0 0 0 0 0
9 15 19 35 59 136 214 211 214 164 222 427 372 259 187 148 115 0 0 0 0 0 0 0 0 0 0 3 10 12 16 19 22 24 24 22 16 8 3 2 9 6 2 0 0 0 0 0 0 0 0 0 0 0 0 0 0 0 0 0 0 0 1
0 2 7 10 18 76 152 237 257 220 469 336 315 223 170 128 21 8 2 0 0 0 0 0 0 0 2 6 6 10 11 27 37 30 29 26 19 7 12 6 10 8 0 0 0 0 0 0 0 0 0 0 0 0 0 0 0 0 0 1 2 2 3

ECMWFFLT1_con_mucape_009.txt.gz
CAPE
0 0 0 0 0 0 0 0 0 0 0 0 0 0 0 0 0 0 0 0 0 0 0 0 0 0 0 0 0 0 6 40 5 4 0 0 102 18 19 1 6 77 354 314 281 100 11 7 7 520 426 474 16 14 40 0 0 0 1 0 136 581 523
0 0 0 0 0 0 0 0 0 0 0 0 0 0 0 0 0 0 0 0 0 0 0 0 0 0 0 0 0 0 0 0 3 2 0 3 7 0 0 18 3 44 61 35 86 25 63 6 0 7 94 561 445 308 206 30 9 2 0 0 3 106 264
0 0 0 0 0 0 0 0 0 0 0 0 0 0 0 0 0 0 0 0 0 0 0 0 0 0 0 0 0 0 0 0 0 0 0 0 0 0 12 77 45 34 199 184 226 111 63 9 0 0 0 0 0 5 443 376 224 62 0 0 0 0 2
0 0 0 0 0 0 0 0 0 0 0 0 0 0 0 0 0 0 0 0 0 0 0 0 0 0 0 0 0 0 0 0 0 0 0 0 0 0 0 0 0 0 0 0 0 0 0 0 0 0 0 0 0 0 0 48 39 8 2 3 18 16 10
0 0 0 0 0 0 0 0 0 0 0 0 0 0 0 0 0 0 0 0 0 0 0 0 0 0 0 0 0 0 0 0 0 0 0 0 0 0 0 0 0 0 0 0 0 0 0 0 0 0 0 0 0 0 0 0 0 0 0 0 0 2 2
0 0 0 0 0 0 0 0 0 0 0 0 0 0 0 0 0 0 0 0 0 0 0 0 0 0 0 0 0 0 0 0 0 0 0 0 0 0 0 0 0 0 0 0 0 0 0 0 0 0 0 0 0 0 0 0 0 0 0 0 0 0 0
0 0 0 0 0 0 0 0 0 0 0 0 0 0 0 0 0 0 0 0 0 0 0 0 0 0 0 0 0 0 0 0 0 0 0 0 0 0 0 0 0 0 0 0 0 0 0 0 0 0 0 0 0 0 0 0 0 0 0 0 0 0 0
0 0 0 0 0 0 0 0 0 0 0 0 0 0 0 0 0 0 0 0 0 0 0 0 0 0 0 0 0 0 0 0 0 0 0 0 0 0 0 0 0 0 0 0 0 0 0 0 0 0 0 0 0 0 0 0 0 0 0 0 0 0 0
0 0 0 1 0 0 0 0 0 0 0 0 0 0 0 0 0 0 0 0 0 0 0 0 0 0 0 0 0 0 0 0 0 0 0 0 0 0 0 0 0 0 0 0 0 0 0 0 0 0 0 0 0 0 0 0 0 0 0 0 0 0 0
0 0 0 0 2 0 1 0 0 0 0 0 0 0 0 0 0 0 0 0 0 0 0 0 0 0 0 0 0 0 0 0 0 0 0 0 0 0 0 0 0 0 0 0 0 0 0 0 0 0 0 0 0 0 0 0 0 0 0 0 0 0 0
0 0 0 0 30 20 0 10 3 0 0 0 0 0 0 0 0 0 0 0 0 0 0 0 0 0 0 0 0 0 0 0 0 0 0 0 0 0 0 0 0 0 0 0 0 0 0 0 0 0 0 0 0 0 0 0 0 0 0 0 0 0 0
0 0 11 0 181 65 0 118 65 27 0 0 0 0 0 0 0 0 0 0 0 0 0 0 0 0 0 0 0 0 0 0 0 0 0 0 0 0 0 0 0 0 0 0 0 0 0 0 0 0 0 0 0 0 0 0 0 0 0 0 0 0 0
43 0 167 18 234 177 4 8 180 130 27 0 0 0 0 0 0 0 0 0 0 0 0 0 0 0 0 0 0 0 0 0 0 0 0 0 0 0 0 0 0 0 0 0 0 0 0 0 0 0 0 0 0 0 0 0 0 0 0 0 0 0 0
399 210 528 50 254 225 84 10 0 196 34 0 0 0 10 2 0 0 0 0 0 0 0 0 0 0 0 0 0 0 0 0 0 0 0 0 0 0 0 0 0 0 0 0 0 0 0 0 0 0 0 0 0 0 0 0 0 0 0 0 0 0 0
570 424 538 287 346 359 315 295 117 276 8 172 0 0 10 14 3 4 3 0 0 0 0 0 0 0 0 0 0 0 0 0 0 0 0 0 0 0 0 0 0 0 0 0 0 0 0 0 0 0 0 0 0 0 0 0 0 0 0 0 0 0 0
833 491 364 390 449 476 304 335 300 285 324 330 310 239 211 112 15 10 26 1 0 0 0 0 0 0 0 0 0 0 0 0 0 0 0 0 0 0 0 0 0 0 0 0 0 0 0 0 0 0 0 0 0 0 0 0 0 0 0 0 0 0 0
1063 1068 926 771 621 470 301 2 209 14 35 350 525 568 279 206 181 195 198 173 171 27 8 0 0 0 0 0 0 0 0 0 0 0 0 0 0 0 0 0 0 0 0 0 0 0 0 0 0 0 0 0 0 0 0 0 0 0 0 0 0 0 0
904 825 895 940 738 577 394 72 114 40 112 205 455 610 618 451 267 274 270 247 245 236 200 161 150 88 0 0 3 5 3 2 0 0 0 0 0 0 0 0 0 0 0 0 0 0 0 0 0 0 0 0 0 0 0 0 0 0 0 0 0 0 0
984 939 820 788 809 865 671 467 39 121 178 133 385 400 542 501 474 369 87 304 296 252 230 235 222 205 192 97 0 147 134 83 1 2 0 0 0 0 0 1 0 0 0 0 0 0 0 0 0 0 0 0 0 0 0 0 0 0 0 0 0 0 0
751 925 1008 951 843 760 695 637 558 360 287 192 166 97 206 172 152 156 166 131 250 289 274 264 273 264 256 229 199 0 0 0 0 0 0 0 0 0 5 14 18 22 16 4 0 0 0 0 0 0 0 0 0 0 0 0 0 0 0 0 0 0 0
376 973 817 889 856 795 707 630 590 536 463 354 449 424 221 116 61 14 86 130 68 36 348 318 303 298 290 285 267 245 213 200 52 0 0 0 0 0 0 3 22 34 29 22 13 0 0 0 0 0 0 0 0 0 0 0 0 0 0 0 0 0 0
530 562 568 513 461 457 480 590 579 520 518 590 518 443 377 122 100 188 194 162 170 87 329 346 331 334 318 309 292 267 235 213 186 0 0 0 0 0 0 0 6 2 8 11 8 0 0 0 0 0 0 0 0 0 0 0 0 0 0 0 0 0 0
0 247 449 438 461 455 496 570 540 545 539 529 471 432 469 465 392 318 303 246 383 380 388 368 316 318 328 303 274 276 271 254 222 169 29 0 0 0 0 0 10 16 6 0 3 0 0 0 0 0 0 0 0 0 0 0 0 0 0 0 0 0 0
8 0 2 26 272 523 538 562 578 578 568 611 646 640 592 524 490 476 454 413 396 459 606 633 526 341 270 245 214 270 277 262 230 194 128 0 0 0 0 0 48 30 9 1 0 0 0 0 0 0 0 0 0 0 0 0 0 0 0 0 0 0 0
0 0 0 224 145 163 353 512 543 544 568 600 674 782 709 643 617 644 645 707 724 711 674 702 710 613 497 410 326 244 224 216 214 189 142 123 28 0 0 50 65 28 14 9 3 0 0 0 0 0 0 0 0 0 0 0 0 0 0 0 0 0 0
0 0 0 0 0 0 0 294 366 305 439 623 813 999 997 905 849 783 786 881 909 909 969 980 930 857 764 632 506 378 262 265 230 150 31 0 0 0 0 15 41 16 14 11 4 4 5 4 0 0 0 0 0 0 0 0 0 0 0 0 0 0 0
0 0 0 0 0 0 0 0 1 121 144 410 743 908 960 924 803 706 577 526 431 548 679 793 845 839 769 727 643 376 343 374 280 174 103 91 0 0 28 5 23 0 2 9 1 2 2 0 0 0 0 0 0 0 0 0 0 0 0 0 0 0 0
0 0 0 0 0 0 0 0 0 48 172 189 179 336 577 515 436 304 247 239 340 432 460 466 460 508 585 656 672 405 242 168 42 162 29 0 0 0 3 5 6 1 2 14 5 7 7 4 1 0 0 0 0 0 0 0 0 0 0 0 0 0 0
0 0 0 0 0 0 0 0 0 0 130 164 188 166 295 416 386 304 233 206 217 265 279 274 279 274 297 342 392 371 319 266 234 170 114 24 0 1 4 1 1 0 5 5 8 12 8 4 3 1 0 0 0 0 0 0 0 0 0 0 0 0 0
0 0 0 0 0 0 0 0 0 0 30 223 256 233 204 173 214 318 345 341 344 349 311 259 246 256 259 251 263 259 84 0 0 0 0 2 1 2 5 0 4 1 4 8 18 13 18 15 8 6 2 0 0 0 0 0 0 0 0 0 0 0 0
0 0 0 0 0 0 0 0 0 0 6 35 194 250 258 36 0 132 331 410 406 359 312 246 210 210 216 230 249 267 108 0 0 1 1 1 2 2 0 0 0 0 0 13 16 24 24 20 14 5 0 0 0 0 0 0 0 0 0 0 0 0 0
0 0 0 0 0 0 0 0 0 0 1 65 167 190 170 23 0 0 63 220 229 216 225 235 231 224 185 181 170 28 0 3 16 1 0 0 4 8 7 1 12 17 20 20 21 23 23 19 11 3 0 0 0 0 0 0 0 0 0 0 0 0 0
0 0 0 0 0 0 0 0 0 0 0 0 40 136 133 0 0 56 158 167 174 186 206 224 230 239 209 168 70 0 0 0 0 0 0 4 12 8 12 0 1 8 15 16 14 12 11 10 6 1 0 0 0 0 0 0 0 0 0 0 0 0 0
0 0 0 0 0 1 0 3 0 0 0 0 0 101 0 0 0 46 118 152 171 195 216 216 181 163 155 52 0 0 0 0 0 1 6 16 27 19 21 20 4 8 14 17 16 13 5 0 0 0 0 0 0 0 0 0 0 0 0 0 0 0 0
0 0 0 0 0 0 0 0 0 0 0 0 35 104 121 96 94 94 107 115 138 170 183 161 144 123 0 0 0 0 0 0 0 0 0 2 8 6 0 0 1 8 10 12 10 1 0 0 0 0 0 0 0 0 0 0 0 0 0 0 0 0 0
0 0 0 0 0 0 0 0 0 0 0 0 73 118 104 99 105 110 107 109 115 127 133 131 101 0 0 0 0 0 0 0 0 0 0 4 3 8 8 13 13 14 9 2 0 0 0 0 4 1 0 0 0 0 0 0 0 0 0 0 0 0 0
0 0 0 0 0 0 0 0 0 0 0 74 151 184 167 139 127 125 123 120 124 111 93 0 0 0 0 0 0 0 0 0 0 1 0 0 1 9 11 9 10 7 8 4 3 4 3 4 1 0 0 0 0 0 0 0 0 0 0 0 0 2 3

ECMWFFLT1_con_mucape_012.txt.gz
CAPE
0 0 0 0 0 0 0 0 0 0 0 0 0 0 0 37 14 0 0 0 0 458 753 728 608 647 760 713 543 511 662 627 593 492 484 452 500 440 466 390 336 354 377 261 260 4 0 2 0 0 422 436 375 167 0 0 0 0 0 0 0 0 2
0 0 0 0 0 0 0 0 0 0 0 0 0 0 0 0 0 0 0 0 0 0 0 0 0 110 0 0 0 0 126 295 310 295 338 372 365 377 373 321 306 304 281 53 69 2 22 82 0 0 0 0 218 301 264 178 80 11 6 0 0 0 0
0 0 0 0 0 0 0 0 0 0 0 0 0 0 0 0 0 0 0 0 0 0 0 0 0 0 0 0 0 0 0 0 0 0 0 0 0 0 0 0 266 214 231 62 181 99 112 0 6 0 0 0 0 0 0 0 22 16 40 0 0 0 0
0 0 0 0 0 0 0 0 0 0 0 0 0 0 0 0 0 0 0 0 0 0 0 0 0 0 0 0 0 0 0 0 0 0 0 0 0 0 0 0 0 35 1 0 0 0 0 0 0 0 0 0 0 0 0 0 0 0 0 0 0 0 0
0 0 0 0 0 0 0 0 0 0 0 0 0 0 0 0 0 0 0 0 0 0 0 0 0 0 0 0 0 0 0 0 0 0 0 0 0 0 0 0 0 0 0 0 0 0 0 0 0 0 0 0 0 0 0 0 0 0 0 0 0 0 0
0 0 0 0 0 0 0 0 0 0 0 0 0 0 0 0 0 0 0 0 0 0 0 0 0 0 0 0 0 0 0 0 0 0 0 0 0 0 0 0 0 0 0 0 0 0 0 0 0 0 0 0 0 0 0 0 0 0 0 0 0 0 0
0 0 0 0 0 0 0 0 0 0 0 0 0 0 0 0 0 0 0 0 0 0 0 0 0 0 0 0 0 0 0 0 0 0 0 0 0 0 0 0 0 0 0 0 0 0 0 0 0 0 0 0 0 0 0 0 0 0 0 0 0 0 0
0 0 0 0 0 0 0 0 0 0 0 0 0 0 0 0 0 0 0 0 0 0 0 0 0 0 0 0 0 0 0 0 0 0 0 0 0 0 0 0 0 0 0 0 0 0 0 0 0 0 0 0 0 0 0 0 0 0 0 0 0 0 0
0 0 0 0 0 0 0 0 0 0 0 0 0 0 0 0 0 0 0 0 0 0 0 0 0 0 0 0 0 0 0 0 0 0 0 0 0 0 0 0 0 0 0 0 0 0 0 0 0 0 0 0 0 0 0 0 0 0 0 0 0 0 0
0 0 0 0 0 0 0 0 0 0 0 0 0 0 0 0 0 0 0 0 0 0 0 0 0 0 0 0 0 0 0 0 0 0 0 0 0 0 0 0 0 0 0 0 0 0 0 0 0 0 0 0 0 0 0 0 0 0 0 0 0 0 0
0 0 0 0 0 0 0 0 0 0 0 0 0 0 0 0 0 0 0 0 0 0 0 0 0 0 0 0 0 0 0 0 0 0 0 0 0 0 0 0 0 0 0 0 0 0 0 0 0 0 0 0 0 0 0 0 0 0 0 0 0 0 0
0 0 0 0 0 0 0 0 0 0 0 0 0 0 0 0 0 0 0 0 0 0 0 0 0 0 0 0 0 0 0 0 0 0 0 0 0 0 0 0 0 0 0 0 0 0 0 0 0 0 0 0 0 0 0 0 0 0 0 0 0 0 0
0 0 0 0 0 0 0 0 0 0 0 0 0 0 0 0 0 0 0 0 0 0 0 0 0 0 0 0 0 0 0 0 0 0 0 0 0 0 0 0 0 0 0 0 0 0 0 0 0 0 0 0 0 0 0 0 0 0 0 0 0 0 0
0 0 0 0 0 0 0 0 0 0 0 0 0 0 0 0 0 0 0 0 0 0 0 0 0 0 0 0 0 0 0 0 0 0 0 0 0 0 0 0 0 0 0 0 0 0 0 0 0 0 0 0 0 0 0 0 0 0 0 0 0 0 0
0 0 0 0 0 0 0 0 0 0 0 0 0 0 0 0 0 0 0 0 0 0 0 0 0 0 0 0 0 0 0 0 0 0 0 0 0 0 0 0 0 0 0 0 0 0 0 0 0 0 0 0 0 0 0 0 0 0 0 0 0 0 0
0 0 0 1 5 0 0 0 8 115 123 60 24 0 0 0 0 0 0 0 0 0 0 0 0 0 0 0 0 0 0 0 0 0 0 0 0 0 0 0 0 0 0 0 0 0 0 0 0 0 0 0 0 0 0 0 0 0 0 0 0 0 0
6 39 0 0 6 5 9 168 144 160 167 102 98 71 4 5 0 0 0 0 0 0 0 0 0 0 0 0 0 0 0 0 0 0 0 0 0 0 0 0 0 0 0 0 0 0 0 0 0 0 0 0 0 0 0 0 0 0 0 0 0 0 0
87 17 26 26 2 3 34 7 3 223 193 132 104 153 188 180 132 135 101 6 0 0 0 0 0 0 0 0 0 0 0 0 0 0 0 0 0 0 0 0 0 0 0 0 0 0 0 0 0 0 0 0 0 0 0 0 0 0 0 0 0 0 0
339 2 0 0 0 3 0 9 17 9 17 64 10 13 245 174 161 222 216 216 59 41 5 4 1 27 0 0 0 0 0 0 0 0 0 0 0 0 0 0 0 0 0 0 0 0 0 0 0 0 0 0 0 0 0 0 0 0 0 0 0 0 0
129 20 5 2 0 0 0 1 86 0 8 37 106 74 312 301 298 290 279 270 283 269 183 244 234 236 229 149 4 140 0 0 0 0 46 148 0 0 0 0 0 0 0 0 0 0 0 0 0 0 0 0 0 0 0 0 0 0 0 0 0 0 0
44 69 176 295 160 45 45 40 92 74 182 527 468 179 422 425 416 359 320 297 300 304 300 304 314 296 265 237 250 251 237 0 0 0 0 0 0 42 0 0 0 0 0 0 0 0 0 0 0 0 0 0 0 0 0 0 0 0 0 0 0 0 0
161 423 46 41 262 56 80 30 51 65 61 73 152 433 567 517 478 428 387 339 303 300 304 330 288 300 7 0 282 311 303 289 284 273 245 223 196 170 104 0 0 0 0 0 0 0 0 0 0 0 0 0 0 0 0 0 0 0 0 0 0 0 0
135 13 35 33 458 15 0 132 407 468 445 379 343 386 450 396 324 128 0 0 0 11 1 0 0 0 0 0 330 324 309 340 336 304 278 269 245 212 179 0 0 0 0 0 0 3 6 3 0 0 0 0 0 0 0 0 0 0 0 0 0 0 0
70 299 300 12 0 213 378 468 501 543 533 463 400 498 502 464 377 359 384 380 364 313 0 10 2 0 0 254 350 370 376 380 356 351 334 318 299 267 224 197 63 0 0 0 1 8 10 0 0 0 0 0 0 0 0 0 0 0 0 0 0 0 0
323 372 302 350 453 462 512 519 527 510 512 515 522 550 562 551 531 505 461 447 439 485 513 580 638 616 561 528 521 504 440 384 359 343 309 316 306 300 266 206 122 61 82 46 27 14 11 0 0 0 0 0 0 0 0 0 0 0 0 0 0 0 0
0 0 0 0 0 0 164 352 364 369 422 412 396 392 438 466 508 463 513 661 748 820 902 916 894 889 910 914 903 869 768 656 501 465 410 370 329 328 304 261 186 145 87 48 22 7 5 9 2 0 0 0 0 0 0 1 1 0 0 0 0 0 0
0 0 0 0 0 0 0 5 117 202 274 267 320 426 549 576 611 660 718 776 762 720 644 526 507 594 654 716 811 837 833 722 617 504 428 354 326 262 79 140 127 106 79 62 27 10 15 14 5 0 0 0 0 0 0 0 1 0 0 0 0 0 0
0 0 0 0 0 0 0 0 0 0 32 155 259 351 486 640 788 866 849 641 421 232 216 296 371 354 316 311 388 532 687 728 675 582 466 366 204 0 0 34 66 71 26 21 22 19 13 7 1 0 0 0 0 0 0 0 0 0 0 0 0 0 0
0 0 0 0 0 0 0 0 0 0 0 0 150 187 284 351 539 688 616 419 275 215 191 145 144 161 170 197 230 285 367 426 398 302 228 188 172 69 0 0 0 3 5 9 9 6 4 1 0 0 0 0 0 1 5 6 5 1 0 0 0 0 0
0 0 0 0 0 0 0 0 0 0 0 0 1 32 0 0 0 188 240 315 356 345 297 248 207 182 0 0 113 191 216 213 189 123 0 0 0 0 0 0 1 5 3 7 11 8 2 0 0 0 0 0 0 0 4 8 5 0 0 0 0 0 0
0 0 0 0 0 0 0 0 0 0 0 0 0 15 132 123 0 156 210 252 313 360 379 373 341 244 0 0 0 65 136 133 0 0 0 0 53 0 28 9 4 3 5 7 1 1 0 0 0 0 1 12 3 6 7 6 2 0 0 0 0 0 0
0 0 0 0 0 0 0 0 0 0 0 0 0 0 0 0 151 169 220 271 316 364 420 381 260 145 0 0 2 166 161 74 0 0 0 0 0 0 0 6 0 1 2 2 3 3 0 0 0 1 11 8 8 13 10 4 0 0 0 0 0 0 0
0 0 0 0 0 0 0 0 0 0 0 0 0 0 0 0 6 149 201 255 310 330 325 244 177 0 0 0 167 186 185 159 6 0 0 0 0 0 0 0 0 1 4 3 2 1 8 11 15 19 20 15 11 11 3 0 0 0 0 0 0 0 0
0 0 0 0 0 0 0 0 0 0 0 0 0 0 0 0 0 63 158 204 229 239 222 209 195 175 155 164 173 182 171 0 0 0 0 0 0 0 0 1 4 8 8 9 2 2 0 1 7 12 14 10 4 0 0 0 0 0 0 0 0 0 0
0 0 0 0 0 0 0 0 0 0 0 0 0 0 0 0 0 39 132 173 210 235 234 225 218 202 185 172 168 164 24 0 0 0 0 0 0 1 3 5 5 4 1 0 0 0 0 0 1 3 2 0 0 0 0 0 0 0 0 0 0 0 0
1 0 0 0 0 0 0 0 0 0 0 0 0 0 0 0 0 30 112 160 196 214 218 216 203 186 174 169 143 83 0 0 0 0 0 0 0 0 1 4 2 1 0 2 4 4 4 3 0 0 0 0 0 0 0 0 0 0 0 0 0 0 0
0 2 0 0 0 0 0 0 0 0 0 0 0 0 0 0 0 54 94 137 166 175 178 174 167 148 142 117 81 8 0 0 0 0 0 0 0 0 0 0 1 0 1 0 0 0 0 0 0 0 0 0 0 0 0 0 0 0 0 0 0 0 0

ECMWFFLT1_con_mucape_015.txt.gz
CAPE
0 0 0 0 0 0 0 0 0 0 0 0 0 0 0 0 0 0 0 0 331 565 699 586 542 623 588 661 635 609 513 417 370 318 391 364 426 410 41 350 261 420 342 18 31 0 0 1 0 0 45 207 114 35 48 37 1 0 0 0 0 0 0
0 0 0 0 0 0 0 0 0 0 0 0 0 0 0 0 0 0 0 0 0 443 133 110 418 474 434 0 98 370 486 484 454 348 387 438 379 474 423 400 354 203 0 155 295 109 0 0 0 0 0 0 0 0 0 0 0 0 0 0 0 0 0
0 0 0 0 0 0 0 0 0 0 0 0 0 0 0 0 0 0 0 0 0 0 0 0 0 0 0 0 0 0 0 0 21 265 306 331 358 321 337 390 331 270 294 126 136 0 0 0 14 0 0 0 0 0 0 0 0 0 0 0 0 0 0
0 0 0 0 0 0 0 0 0 0 0 0 0 0 0 0 0 0 0 0 0 0 0 0 0 0 0 0 0 0 0 0 0 0 0 0 0 0 0 202 304 194 34 0 0 0 0 0 0 0 0 0 0 0 0 0 0 0 0 0 0 0 0
0 0 0 0 0 0 0 0 0 0 0 0 0 0 0 0 0 0 0 0 0 0 0 0 0 0 0 0 0 0 0 0 0 0 0 0 0 0 0 0 0 0 0 0 0 0 0 0 0 0 0 0 0 0 0 0 0 0 0 0 0 0 0
0 0 0 0 0 0 0 0 0 0 0 0 0 0 0 0 0 0 0 0 0 0 0 0 0 0 0 0 0 0 0 0 0 0 0 0 0 0 0 0 0 0 0 0 0 0 0 0 0 0 0 0 0 0 0 0 0 0 0 0 0 0 0
0 0 1 0 0 0 0 0 0 0 0 0 0 0 0 0 0 0 0 0 0 0 0 0 0 0 0 0 0 0 0 0 0 0 0 0 0 0 0 0 0 0 0 0 0 0 0 0 0 0 0 0 0 0 0 0 0 0 0 0 0 0 0
0 0 0 0 0 0 0 0 0 0 0 0 0 0 0 0 0 0 0 0 0 0 0 0 0 0 0 0 0 0 0 0 0 0 0 0 0 0 0 0 0 0 0 0 0 0 0 0 0 0 0 0 0 0 0 0 0 0 0 0 0 0 0
4 0 0 0 0 0 0 0 0 0 0 0 0 0 0 0 0 0 0 0 0 0 0 0 0 0 0 0 0 0 0 0 0 0 0 0 0 0 0 0 0 0 0 0 0 0 0 0 0 0 0 0 0 0 0 0 0 0 0 0 0 0 0
10 0 0 0 0 0 0 0 0 0 0 0 0 0 0 0 0 0 0 0 0 0 0 0 0 0 0 0 0 0 0 0 0 0 0 0 0 0 0 0 0 0 0 0 0 0 0 0 0 0 0 0 0 0 0 0 0 0 0 0 0 0 0
0 0 0 1 0 0 0 0 0 0 0 0 0 0 0 0 0 0 0 0 0 0 0 0 0 0 0 0 0 0 0 0 0 0 0 0 0 0 0 0 0 0 0 0 0 0 0 0 0 0 0 0 0 0 0 0 0 0 0 0 0 0 0
9 1 0 1 0 0 0 0 0 0 0 0 0 0 0 0 0 0 0 0 0 0 0 0 0 0 0 0 0 0 0 0 0 0 0 0 0 0 0 0 0 0 0 0 0 0 0 0 0 0 0 0 0 0 0 0 0 0 0 0 0 0 0
76 8 0 6 0 0 0 0 0 0 0 0 0 0 0 0 0 0 0 0 0 0 0 0 0 0 0 0 0 0 0 0 0 0 0 0 0 0 0 0 0 0 0 0 0 0 0 0 0 0 0 0 0 0 0 0 0 0 0 0 0 0 0
0 0 0 0 0 0 0 0 0 0 0 0 0 0 0 0 0 0 0 0 0 0 0 0 0 0 0 0 0 0 0 0 0 0 0 0 0 0 0 0 0 0 0 0 0 0 0 0 0 0 0 0 0 0 0 0 0 0 0 0 0 0 0
35 0 0 0 0 0 0 0 0 0 0 0 0 0 0 0 0 0 0 0 0 0 0 0 0 0 0 0 0 0 0 0 0 0 0 0 0 0 0 0 0 0 0 0 0 0 0 0 0 0 0 0 0 0 0 0 0 0 0 0 0 0 0
32 22 34 28 0 0 0 0 0 0 0 0 0 0 0 0 0 0 0 0 0 0 0 0 0 0 0 0 0 0 0 0 0 0 0 0 0 0 0 0 0 0 0 0 0 0 0 0 0 0 0 0 0 0 0 0 0 0 0 0 0 0 0
32 44 20 30 21 0 0 0 0 0 6 0 0 5 6 3 0 2 0 0 0 0 0 0 0 0 0 0 0 0 0 0 0 0 0 0 0 0 0 0 0 0 0 0 0 0 0 0 0 0 0 0 0 0 0 0 0 0 0 0 0 0 0
56 26 36 25 2 0 0 0 0 0 0 10 16 4 8 4 12 33 28 14 10 3 0 1 4 3 0 0 0 0 0 0 0 0 0 0 0 0 0 0 0 0 0 0 0 0 0 0 0 0 0 0 0 0 0 0 0 0 0 0 0 0 0
31 42 44 26 3 257 0 0 0 0 0 1 3 2 0 1 1 0 0 0 2 13 15 11 10 8 2 0 0 0 0 0 0 0 0 0 0 0 0 0 0 0 0 0 0 1 0 0 3 2 0 0 0 0 0 0 0 0 0 0 0 0 0
356 364 36 10 0 0 0 0 0 0 0 0 0 1 2 2 10 1 12 6 0 0 0 40 106 82 1 2 0 0 0 0 0 0 0 0 0 0 0 0 0 0 0 0 10 6 2 1 0 0 0 0 0 0 0 0 0 0 0 0 0 0 0
353 92 16 20 22 0 0 0 2 0 0 0 16 0 0 13 6 15 28 0 11 3 0 217 235 217 212 214 0 0 0 12 42 222 0 228 225 218 58 119 89 0 0 56 36 17 6 9 9 2 0 0 0 0 0 0 0 0 0 0 0 0 0
2 26 74 43 3 17 7 26 19 0 1 0 0 0 0 5 11 15 153 202 12 10 11 259 318 317 309 296 270 257 228 208 218 201 81 213 247 227 33 119 0 0 0 87 56 28 5 5 6 7 5 2 0 0 0 0 0 0 0 0 0 0 0
121 105 26 101 3 73 73 84 46 128 66 56 15 24 14 3 0 180 236 242 0 7 16 218 374 382 366 364 326 309 290 243 8 1 178 255 278 0 0 0 0 0 0 72 86 49 23 6 2 2 5 12 3 0 0 0 0 0 0 0 0 0 0
515 418 330 256 32 202 259 80 2 0 0 0 5 213 292 51 64 0 0 136 0 0 267 324 303 274 218 44 0 0 132 263 281 300 318 313 321 327 329 309 255 226 115 49 110 57 18 7 5 9 14 16 12 7 1 0 0 0 0 0 0 0 0
546 457 304 267 147 331 248 59 0 0 0 0 113 211 490 444 374 258 132 98 226 376 446 472 538 578 612 630 584 520 475 502 510 494 496 476 437 398 351 329 289 246 197 155 104 61 15 10 12 14 13 14 10 17 3 2 0 0 0 0 0 0 0
334 362 344 288 27 241 276 300 323 293 0 0 15 16 20 219 206 80 16 228 414 712 815 903 882 720 687 706 781 828 876 870 851 827 762 681 604 522 454 398 344 238 149 78 40 25 17 8 4 17 29 25 24 10 4 4 2 0 0 0 0 0 0
329 338 325 294 360 371 320 310 333 374 371 396 445 461 476 450 396 416 506 591 704 778 725 521 300 290 326 339 355 386 487 609 719 744 732 662 571 483 404 367 289 227 136 78 59 34 14 13 19 26 19 10 12 6 4 5 2 0 0 0 0 0 0
0 240 174 86 264 250 205 230 204 216 232 282 295 265 329 347 449 550 648 779 844 741 442 34 0 0 0 0 0 128 253 369 477 569 610 613 607 545 457 384 292 196 84 31 6 3 8 3 11 18 13 9 4 2 2 0 0 0 0 0 0 0 0
0 0 0 0 0 0 0 0 0 0 0 0 0 0 0 172 361 523 728 792 785 618 336 236 174 118 85 0 0 0 116 211 288 361 390 370 329 285 264 211 131 79 58 44 38 31 27 15 7 3 1 1 0 0 0 0 0 0 0 0 0 0 0
0 0 0 0 0 0 0 0 0 0 0 0 0 0 131 157 228 298 419 510 516 452 356 282 241 215 190 0 0 0 0 74 121 120 106 0 0 0 0 0 18 3 7 19 14 11 14 12 6 7 4 0 0 0 0 0 0 0 0 0 0 0 0
0 0 0 0 0 0 0 0 0 0 0 0 0 0 0 19 138 180 225 272 268 290 246 215 202 221 203 15 0 0 0 0 0 0 0 0 0 0 0 0 0 4 3 3 4 4 7 8 6 0 0 0 2 0 1 0 0 0 1 0 0 0 0
0 0 0 0 0 0 0 0 0 0 0 0 0 0 0 0 0 75 161 186 232 240 255 245 238 253 209 29 0 0 0 0 0 0 0 0 0 0 0 0 0 0 0 1 4 6 4 2 0 0 0 0 2 5 8 3 0 0 0 0 0 0 0
0 0 0 0 0 0 0 0 0 0 0 0 0 0 0 0 0 0 6 157 209 222 230 237 223 198 143 104 0 0 0 0 0 0 0 0 0 0 0 0 0 0 0 0 0 0 0 0 3 3 3 3 8 9 3 2 2 1 0 0 0 0 0
0 0 0 0 0 0 0 0 0 0 0 0 0 0 0 0 0 0 0 0 136 196 208 214 198 161 139 120 67 0 0 0 0 0 0 0 0 0 0 0 0 0 0 0 0 0 0 2 6 7 6 3 3 2 2 0 0 0 0 0 0 0 0
0 0 0 0 0 0 0 0 0 0 0 0 0 0 0 0 0 0 0 0 0 146 176 197 188 177 161 148 124 7 0 6 0 0 0 0 0 0 0 0 0 0 0 0 0 2 3 0 2 3 3 3 1 0 0 0 0 0 0 0 0 0 0
0 0 0 0 0 0 0 0 0 0 0 0 0 0 0 0 0 0 0 0 0 94 150 177 190 189 184 164 142 126 108 0 0 0 0 0 0 0 0 1 0 2 1 0 0 0 0 2 2 0 0 0 0 0 0 0 0 0 0 0 0 0 0
0 0 1 0 0 0 0 0 0 0 0 0 0 26 0 0 0 0 0 0 0 75 119 159 194 201 185 154 135 117 32 0 0 0 0 0 0 0 0 0 0 0 1 2 4 6 5 1 0 0 0 0 0 0 0 0 0 0 0 0 0 0 0

ECMWFFLT1_con_mucape_021.txt.gz
CAPE
1054 392 262 76 1 0 0 0 0 2 132 508 930 864 1036 1088 1070 896 709 632 686 598 674 662 573 643 766 697 660 902 728 758 807 566 692 667 820 486 487 512 586 563 685 764 508 496 15 18 24 14 0 0 0 0 0 0 0 0 0 0 0 0 0
478 277 77 0 0 0 0 0 0 0 20 19 482 334 352 618 802 1019 910 852 696 750 718 697 699 666 806 763 670 667 704 762 750 538 659 572 972 716 573 488 578 584 640 759 594 347 8 14 0 0 0 0 0 0 0 0 0 0 0 0 0 0 0
357 140 25 0 0 0 0 0 9 84 78 93 6 2 72 125 472 770 986 972 694 643 602 652 455 480 547 634 668 746 616 760 635 649 758 797 865 944 901 864 868 585 677 625 612 226 71 20 0 0 0 0 0 0 0 0 0 0 0 0 0 0 0
463 224 13 0 0 0 0 0 14 16 39 41 23 8 13 72 283 328 519 510 496 362 243 354 580 471 339 368 304 415 521 552 473 324 165 270 277 309 448 800 822 738 538 548 296 188 7 0 0 0 0 0 0 0 0 0 0 0 0 0 0 0 0
591 388 244 35 0 0 0 0 0 2 1 3 19 57 11 2 88 87 12 37 132 228 208 150 118 146 51 17 48 76 21 76 228 334 328 251 349 347 354 187 36 52 95 65 26 33 6 0 0 0 0 0 0 0 0 0 0 0 0 0 0 0 0
733 653 431 143 4 0 0 0 0 6 7 28 50 51 0 0 0 9 13 22 11 5 2 5 4 0 0 0 0 1 10 74 150 167 128 208 124 18 0 0 0 0 0 0 0 0 0 0 0 0 0 0 0 0 0 0 0 0 0 0 0 0 0
444 450 249 34 0 3 0 0 0 13 58 131 34 35 0 0 0 0 0 0 0 0 0 0 0 0 0 0 0 0 0 0 0 0 0 0 0 0 0 0 0 0 0 0 0 0 0 0 0 0 0 0 0 0 0 0 0 0 0 0 0 0 0
308 270 188 98 0 0 0 0 0 0 10 0 0 0 0 0 0 0 0 0 0 0 0 0 0 0 0 0 0 0 0 0 0 0 0 0 0 0 0 0 0 0 0 0 0 0 0 0 0 0 0 0 0 0 0 0 0 0 0 0 0 0 0
176 32 10 13 44 9 4 18 0 0 0 0 0 0 0 0 0 0 0 0 0 0 0 0 0 0 0 0 0 0 0 0 0 0 0 0 0 0 0 0 0 0 0 0 0 0 0 0 0 0 0 0 0 0 0 0 0 0 0 0 0 0 0
74 181 118 16 13 0 4 0 0 0 0 0 0 0 0 0 0 0 0 0 0 0 0 0 0 0 0 0 0 0 0 0 0 0 0 0 0 0 0 0 0 0 0 0 0 0 0 0 0 0 0 0 0 0 0 0 0 0 0 0 0 0 0
110 69 11 23 11 1 0 0 0 0 0 0 0 0 0 0 0 0 0 0 0 0 0 0 0 0 0 0 0 0 0 0 0 0 0 0 0 0 0 0 0 0 0 0 0 0 0 0 0 0 0 0 0 0 0 0 0 0 0 0 0 0 0
53 41 50 29 24 23 12 2 0 0 0 0 0 0 0 0 0 0 0 0 0 0 0 0 0 0 0 0 0 0 0 0 0 0 0 0 0 0 0 0 0 0 0 0 0 0 0 0 0 0 0 0 0 0 0 0 0 0 0 0 0 0 0
236 58 28 46 110 39 4 0 0 0 0 0 13 1 0 0 0 0 0 0 0 0 0 0 0 0 0 0 0 0 0 0 0 0 0 0 0 0 0 0 0 0 0 0 0 0 0 0 0 0 0 0 0 0 0 0 0 0 0 0 0 0 0
332 300 148 112 188 92 2 0 0 0 0 0 0 1 0 0 0 0 0 0 0 0 0 0 0 0 0 0 0 0 0 0 0 0 0 0 0 0 0 0 0 0 0 0 0 0 0 0 0 0 0 0 0 0 0 0 0 0 0 0 0 0 0
437 382 224 124 71 30 0 0 0 0 0 0 0 1 0 0 0 0 0 0 0 0 0 0 0 0 0 0 0 0 0 0 0 0 0 0 0 0 0 0 0 0 0 0 0 0 0 0 0 0 0 0 0 0 0 0 0 0 0 0 0 0 0
529 448 221 220 30 21 1 0 0 0 0 0 0 0 0 0 0 0 0 0 0 0 0 0 0 0 0 0 0 0 0 0 0 0 0 0 0 0 0 0 0 0 0 0 0 0 0 0 0 0 0 0 0 0 0 0 0 0 0 0 0 0 0
534 437 291 349 37 46 12 0 0 0 0 0 0 0 0 0 0 0 0 0 0 0 0 0 0 0 0 0 0 0 0 0 0 0 0 0 0 0 0 0 0 0 0 0 0 0 0 0 0 0 0 0 0 0 0 0 0 0 0 0 0 0 0
629 502 544 465 244 51 140 76 4 0 0 6 2 0 0 0 0 0 3 0 0 0 0 0 0 0 0 0 0 0 0 0 0 0 0 0 0 0 0 0 0 0 0 0 0 0 0 0 0 0 0 0 0 0 0 0 0 0 0 0 0 0 0
606 534 587 510 244 247 123 218 112 17 2 6 18 24 23 26 26 31 26 11 2 0 0 0 0 0 0 0 0 0 0 0 0 0 0 0 0 0 0 0 0 0 0 0 0 0 0 0 0 0 0 0 0 0 0 0 0 0 0 0 0 0 0
592 619 652 562 522 402 334 219 202 70 39 38 60 137 165 191 265 171 123 77 42 29 22 34 66 60 42 27 24 13 18 0 0 0 0 0 0 0 0 0 0 0 0 0 0 0 0 0 0 0 0 0 0 0 0 0 0 0 0 0 0 0 0
728 670 720 605 461 469 480 384 113 37 76 179 265 234 224 252 234 114 162 122 125 171 233 230 244 265 290 262 179 115 66 86 60 25 10 0 0 0 0 0 0 0 0 0 2 0 0 1 0 2 0 0 0 0 0 0 0 0 0 0 0 0 0
852 763 562 530 513 551 513 475 491 402 383 430 499 46 1 236 176 157 68 62 74 166 259 248 223 290 357 369 313 357 319 215 237 228 171 55 32 91 90 0 0 0 0 0 0 0 0 0 0 2 2 1 0 0 0 0 0 0 0 0 0 0 0
718 659 568 604 578 627 584 667 612 539 508 529 358 3 12 12 49 203 87 60 32 8 12 4 4 3 3 6 374 182 356 335 290 265 243 181 125 135 174 168 125 20 0 19 0 0 0 2 1 0 0 0 0 0 2 6 5 3 0 0 0 0 0
705 760 819 760 746 606 508 429 430 416 372 319 268 4 97 102 1 250 182 198 144 124 46 7 0 0 0 1 2 340 529 388 332 222 156 151 219 164 80 52 134 166 169 164 0 0 1 19 2 2 2 2 3 5 8 10 9 0 0 0 0 0 0
688 686 640 557 455 376 432 371 213 46 24 26 21 13 474 199 128 36 185 66 149 62 0 0 0 0 7 5 4 68 203 223 220 226 223 184 202 244 216 169 195 211 240 230 224 118 0 0 10 3 1 4 3 3 5 8 2 0 0 0 0 0 0
613 618 634 567 561 519 492 482 473 412 334 422 340 225 34 22 18 14 18 22 7 130 113 0 0 0 0 5 13 330 376 466 458 474 512 550 543 517 468 431 410 328 296 298 258 241 102 88 46 34 29 8 2 2 4 4 3 0 1 1 0 0 0
492 523 550 570 564 566 555 510 367 321 281 207 239 278 258 330 186 128 85 48 45 16 2 0 2 24 132 297 476 476 415 361 359 396 450 482 542 607 592 466 395 435 423 346 243 252 42 52 57 26 9 1 0 1 1 0 0 0 0 0 0 0 0
336 388 391 458 486 502 501 462 396 364 327 352 357 323 263 225 216 314 171 57 38 24 28 14 72 96 331 397 166 0 0 0 11 4 0 192 315 361 380 343 325 320 296 263 238 226 123 17 39 20 2 1 1 0 0 0 0 0 0 0 0 0 0
64 169 375 417 460 477 470 427 353 314 294 312 326 338 272 196 281 225 33 93 73 37 33 4 110 383 276 0 0 0 0 0 0 0 0 8 51 52 45 37 0 0 49 47 46 43 33 0 0 0 0 0 0 0 0 0 0 0 0 0 0 0 0
0 9 157 351 332 356 298 278 262 308 378 385 401 420 372 249 301 298 263 225 146 45 50 442 351 90 0 0 0 0 0 0 0 0 0 0 0 0 0 0 0 0 0 0 0 0 0 0 0 0 0 0 0 0 0 0 0 0 0 0 0 0 0
0 0 0 78 317 363 220 108 127 15 329 304 304 296 305 312 360 410 404 422 361 190 341 289 217 165 0 0 0 0 0 0 0 0 0 0 0 0 0 0 0 0 0 0 0 0 0 0 0 0 0 0 0 0 0 0 0 0 0 0 0 0 0
0 0 0 0 56 126 9 12 7 0 92 236 179 185 208 236 260 290 336 382 428 257 147 160 35 0 0 0 0 0 0 0 0 0 0 0 0 0 0 0 0 0 0 0 0 0 0 0 0 0 0 0 0 0 0 0 0 0 0 0 0 0 0
0 0 0 0 0 0 0 0 0 0 0 8 54 144 147 149 160 172 168 137 92 5 0 0 0 0 0 0 0 0 0 0 0 0 0 0 0 0 0 0 0 0 0 0 0 0 0 0 0 0 0 0 0 0 0 0 0 0 0 0 0 0 0
0 0 0 0 0 0 0 0 0 2 4 0 0 0 0 0 0 0 0 0 0 0 0 0 0 0 0 0 0 0 0 0 0 0 0 0 0 0 0 0 0 0 0 0 0 0 0 0 0 0 0 0 0 0 0 0 0 0 0 0 0 0 0
0 0 0 0 0 0 0 0 0 0 1 5 0 0 0 0 0 0 0 0 0 0 0 0 0 0 0 0 0 0 0 0 0 0 0 0 0 0 0 0 0 0 0 0 0 0 0 0 0 0 0 0 0 0 0 0 0 0 0 0 0 0 0
2 0 2 2 1 0 0 0 0 0 0 0 0 0 0 0 0 0 0 0 0 0 0 0 0 0 0 0 0 0 0 0 0 0 0 0 0 0 0 0 0 0 0 0 0 0 0 0 0 0 0 0 0 0 0 0 0 0 0 0 0 0 0
3 14 13 14 5 0 0 0 0 0 0 2 0 0 0 0 0 0 0 0 0 0 0 0 0 0 0 0 0 0 0 0 0 0 0 0 0 0 0 0 0 0 0 0 0 0 0 0 0 0 0 0 0 0 0 0 0 0 0 0 0 0 0

ECMWFFLT1_con_mucape_024.txt.gz
CAPE
1168 1246 1184 957 574 217 87 50 142 268 574 473 470 412 359 345 459 466 637 826 638 504 654 563 743 806 893 1248 1315 1271 1068 1037 1001 805 1001 1230 1205 1201 1172 1275 763 912 987 717 937 578 406 90 14 4 0 0 0 0 0 0 0 0 0 0 0 0 0
1134 1003 734 461 385 211 154 200 225 197 430 616 455 462 365 249 236 275 481 592 679 636 546 602 895 1254 1588 1625 1517 1289 1130 1070 981 730 590 868 1061 1298 1254 1269 1087 883 833 847 954 808 343 9 5 8 33 5 0 0 0 0 0 0 0 0 0 0 0
998 738 550 454 389 283 214 246 208 227 216 226 271 435 290 143 183 158 204 576 640 454 238 704 884 1055 1393 1506 1626 1553 1354 1190 1140 1137 1046 921 1055 1497 1272 1235 1041 960 917 840 807 784 457 268 21 0 0 0 0 0 0 0 0 0 0 0 0 0 0
1170 856 606 454 291 180 74 97 127 82 195 106 126 253 295 141 109 72 201 580 704 516 233 158 243 211 596 774 994 1333 1564 1556 1343 1325 1183 995 982 809 923 885 989 908 994 889 808 730 641 430 60 0 0 0 0 0 0 0 0 0 0 0 0 0 0
1414 994 659 427 240 121 67 79 26 20 29 22 99 79 90 77 6 23 187 267 359 400 177 60 28 137 183 342 633 764 1010 1265 1434 1378 1410 1266 1130 1107 1091 978 974 960 904 923 792 575 384 244 65 24 2 0 0 0 0 0 0 0 0 0 0 0 0
1296 980 704 380 225 96 28 5 2 1 0 0 47 29 34 24 0 1 69 45 116 192 103 22 62 53 23 31 184 486 651 776 871 1164 1309 1434 1413 1166 1109 470 219 444 319 238 272 222 90 66 38 14 0 0 0 0 0 0 0 0 0 0 0 0 0
1381 1054 656 332 172 67 39 4 5 0 0 0 51 39 0 0 0 48 253 220 197 210 214 194 81 16 17 6 34 79 236 372 734 1042 1177 928 563 177 107 95 57 55 45 5 5 15 14 6 0 0 0 0 0 0 0 0 0 0 0 0 0 0 0
1211 912 582 295 262 162 71 4 0 0 0 0 0 0 0 0 5 88 65 53 52 67 83 64 7 5 4 0 5 11 16 15 40 63 160 140 109 28 18 1 0 0 0 0 0 0 0 0 0 0 0 0 0 0 0 0 0 0 0 0 0 0 0
902 701 461 170 164 142 78 28 0 0 0 0 0 0 0 0 0 0 0 0 0 0 1 1 0 0 1 0 0 0 0 0 4 7 7 15 20 2 0 0 0 0 0 0 0 0 0 0 0 0 0 0 0 0 0 0 0 0 0 0 0 0 0
1139 776 638 604 435 353 103 0 0 0 0 0 0 0 0 0 0 0 0 0 0 0 0 0 0 0 0 0 0 0 0 0 0 0 0 0 0 0 0 0 0 0 0 0 0 0 0 0 0 0 0 0 0 0 0 0 0 0 0 0 0 0 0
1134 947 951 874 556 380 153 0 0 0 0 0 0 0 0 0 0 0 0 0 0 0 0 0 0 0 0 0 0 0 0 0 0 0 0 0 0 0 0 0 0 0 0 0 0 0 0 0 0 0 0 0 0 0 0 0 0 0 0 0 0 0 0
1103 1150 1110 771 258 448 151 33 0 0 2 0 0 1 0 0 0 0 0 0 0 0 0 0 0 0 0 0 0 0 0 0 0 0 0 0 0 0 0 0 0 0 0 0 0 0 0 0 0 0 0 0 0 0 0 0 0 0 0 0 0 0 0
1042 1170 1012 941 681 490 99 41 0 0 6 0 0 0 0 0 0 0 0 0 0 0 0 0 0 0 0 0 0 0 0 0 0 0 0 0 0 0 0 0 0 0 0 0 0 0 0 0 0 0 0 0 0 0 0 0 0 0 0 0 0 0 0
1226 1022 804 921 684 589 73 14 26 6 0 4 0 0 0 0 0 0 0 0 0 0 0 0 0 0 0 0 0 0 0 0 0 0 0 0 0 0 0 0 0 0 0 0 0 0 0 0 0 0 0 0 0 0 0 0 0 0 0 0 0 0 0
1101 1056 1115 1030 1003 825 214 249 222 55 9 20 0 0 0 0 0 0 0 0 0 0 0 0 0 0 0 0 0 0 0 0 0 0 0 0 0 0 0 0 0 0 0 0 0 0 0 0 0 0 0 0 0 0 0 0 0 0 0 0 0 0 0
1022 1289 1145 992 1079 701 362 365 351 134 79 101 33 0 0 0 0 0 0 0 0 0 0 0 0 0 0 0 0 0 0 0 0 0 0 0 0 0 0 0 0 0 0 0 0 0 0 0 0 0 0 0 0 0 0 0 0 0 0 0 0 0 0
1076 1111 1134 1084 1141 815 412 64 281 271 202 104 4 61 1 0 0 0 0 0 0 0 0 0 0 0 0 1 3 0 0 0 0 0 0 0 0 0 0 0 0 0 0 0 0 0 0 0 0 0 0 0 0 0 0 0 0 0 0 0 0 0 0
1049 1044 911 743 934 895 506 48 272 331 376 205 57 46 18 0 0 0 2 0 0 0 0 0 0 0 0 0 0 0 0 0 0 0 0 0 0 0 0 0 0 0 0 0 0 0 0 0 0 0 0 0 0 0 0 0 0 0 0 0 0 0 0
960 995 900 788 800 759 762 607 429 420 434 395 337 164 64 72 32 48 17 0 0 2 0 1 0 0 0 0 0 5 5 3 0 0 0 0 0 0 0 0 0 0 0 0 0 0 0 0 0 0 0 0 0 0 0 0 0 0 0 0 0 0 0
916 923 854 756 782 753 785 756 651 480 436 546 596 469 302 208 194 196 57 72 76 86 90 72 74 39 16 21 42 62 64 60 51 27 6 0 0 0 0 0 0 0 0 0 0 0 0 0 0 0 0 0 0 0 0 0 0 0 0 0 0 0 0
1006 957 864 797 826 813 836 782 663 579 497 612 643 572 507 409 335 382 448 439 394 397 434 413 402 423 409 570 649 648 619 501 321 318 247 123 93 70 36 14 8 6 0 0 0 0 0 0 0 0 0 0 0 0 0 0 0 0 0 0 0 0 0
1022 1025 973 915 826 768 718 746 670 320 688 698 772 641 639 572 645 638 693 722 672 700 714 690 684 683 686 716 941 964 900 819 797 774 799 790 656 487 389 302 152 84 21 0 0 0 4 0 0 0 0 0 0 0 0 0 0 0 4 4 1 4 5
945 990 970 1067 859 733 671 741 834 857 927 865 972 890 814 780 792 841 913 845 903 990 995 982 735 352 468 686 820 816 911 808 681 795 893 857 911 920 756 703 501 127 139 42 0 0 0 0 0 1 0 0 0 2 2 0 0 3 1 2 3 0 1
761 874 922 777 707 702 728 846 984 1162 1073 977 1038 1140 1060 1097 1114 1061 872 984 906 822 751 727 0 0 0 0 283 586 713 823 922 916 824 1081 978 706 893 732 751 298 1 0 0 0 0 0 0 0 0 0 0 1 0 0 0 0 6 0 0 0 0
1009 969 993 971 769 815 943 991 905 1014 1088 1078 1283 1312 1092 957 862 894 794 842 829 718 906 217 0 0 0 0 91 334 616 724 772 785 833 901 773 648 630 579 972 766 428 156 86 142 72 0 23 38 37 30 31 22 2 0 0 0 0 0 1 2 0
1111 1151 1157 1061 985 824 805 1013 1083 1060 1094 1137 1110 809 907 819 780 905 904 784 874 963 946 2 0 0 0 0 0 174 517 541 623 896 827 868 656 147 488 942 1096 896 343 190 197 209 211 182 125 112 119 131 63 9 0 0 0 0 0 0 0 0 0
764 864 1024 1060 1090 956 878 827 1001 1009 944 941 890 895 894 818 740 816 902 926 757 739 643 104 0 0 0 0 0 93 568 490 845 936 925 680 517 716 984 692 663 615 429 241 328 309 242 174 137 123 104 28 0 0 0 0 0 0 0 0 0 0 0
129 400 681 696 919 1180 1192 1186 1056 1077 1053 1046 1041 1000 961 761 966 1084 1127 1020 856 601 64 40 17 28 17 3 0 12 581 499 531 333 428 708 560 480 469 562 535 329 243 130 56 92 105 19 0 0 0 0 0 0 0 0 0 0 1 0 0 0 0
0 51 294 535 712 940 1030 1028 1007 1124 1166 1208 1169 1184 1194 1201 1214 1167 1105 1022 888 673 690 42 14 18 37 33 24 98 522 389 351 130 132 341 488 392 301 424 459 238 206 198 226 211 170 0 0 0 0 0 0 0 0 0 0 0 0 0 0 0 0
0 0 39 328 444 553 849 975 967 993 1041 1094 1110 1048 1129 1178 1215 1253 1120 969 883 748 438 64 33 37 54 60 58 56 17 282 248 218 204 200 122 70 70 98 149 37 0 107 36 0 0 0 0 0 0 0 0 0 0 0 0 0 0 0 0 0 0
0 0 11 20 191 577 622 570 650 728 718 791 956 1057 1027 995 1018 1052 1045 976 648 943 240 113 32 54 77 59 40 31 32 27 19 89 35 4 0 0 0 0 0 0 0 0 0 0 0 0 0 0 0 0 0 0 0 0 0 0 0 0 0 0 0
0 0 0 2 116 280 473 462 379 487 608 694 1069 1242 956 982 953 775 735 770 521 565 337 74 18 278 89 72 42 48 35 14 60 21 0 0 0 0 0 0 0 0 0 0 0 0 0 0 0 0 0 0 0 0 0 0 0 0 0 0 0 0 0
0 0 0 0 0 116 306 301 317 262 264 292 571 846 798 924 926 810 533 566 349 622 344 228 269 160 130 60 6 329 70 47 25 4 0 0 0 0 0 0 0 0 0 0 0 0 0 0 0 0 0 0 2 8 0 0 0 0 0 0 0 0 0
0 0 0 0 0 0 77 227 203 148 164 157 283 516 647 1001 767 418 302 492 446 563 358 196 216 232 170 0 0 28 90 25 13 0 0 0 0 0 0 0 0 0 0 0 0 0 0 0 0 0 0 0 0 0 0 0 0 0 0 0 0 0 0
0 0 0 0 0 1 20 63 204 227 88 159 544 737 658 616 572 412 316 407 489 251 168 118 110 0 0 0 0 0 10 77 8 0 0 0 0 0 0 0 0 0 0 0 0 0 0 0 0 0 0 0 0 0 0 0 0 0 0 0 0 0 0
0 0 0 0 1 6 22 101 154 142 163 260 400 486 562 385 335 322 316 321 272 151 127 0 0 0 0 0 0 0 0 1 0 0 0 0 0 0 0 0 0 0 0 0 0 0 0 0 0 0 0 0 0 0 0 0 0 0 0 0 0 0 0
0 0 0 0 0 14 9 2 130 119 145 167 161 266 382 344 153 42 69 85 129 147 79 0 0 0 0 0 0 0 0 0 0 18 1 0 0 0 0 0 0 0 0 0 0 0 0 0 0 0 0 0 0 0 0 0 0 0 0 0 0 0 0

ECMWFFLT1_con_mucape_027.txt.gz
CAPE
762 632 670 426 111 6 0 0 91 306 324 295 151 275 350 391 322 402 392 424 218 68 55 94 394 701 981 954 1014 1216 1180 1395 1539 1185 981 1051 594 903 1310 831 667 1011 821 875 526 985 109 90 14 0 0 0 0 0 0 0 0 0 0 0 0 0 0
544 775 366 88 92 92 145 122 146 188 436 358 296 98 364 167 155 209 320 317 307 163 41 178 757 1163 1163 1337 985 1201 1325 1146 1458 1342 1212 1130 1078 854 930 853 827 978 712 610 849 557 671 39 0 3 5 0 0 0 0 0 0 0 0 0 0 0 0
617 468 330 262 172 164 214 269 146 220 29 18 106 220 190 174 199 204 283 380 337 172 104 340 747 1216 1497 1414 1378 1339 1474 1384 1376 900 936 727 758 648 861 820 764 1181 550 730 523 430 489 91 26 8 1 0 0 0 0 0 0 0 0 0 0 0 0
686 538 380 323 177 230 147 193 374 311 281 159 141 155 224 61 42 174 399 320 307 181 102 72 115 109 397 992 1370 1380 1521 1464 1199 899 469 420 692 895 711 873 905 746 1180 867 761 868 688 63 21 18 8 2 0 0 0 0 0 0 0 0 0 0 0
784 606 406 418 194 164 182 247 124 93 148 56 143 129 164 83 24 187 292 324 170 186 99 88 51 42 48 220 562 915 1068 1264 1331 979 454 663 806 730 901 609 774 584 804 742 853 985 485 681 136 52 2 4 0 0 0 0 0 0 0 0 0 0 0
862 571 416 284 158 74 90 56 18 84 2 28 136 121 67 13 0 49 134 203 214 210 149 36 4 27 11 56 276 566 1031 889 1033 1142 1178 1113 957 1116 818 761 416 542 200 484 905 343 236 179 25 4 0 0 0 0 0 0 0 0 0 0 0 0 0
951 652 296 257 133 63 48 18 84 3 48 114 82 26 0 0 87 69 152 97 178 112 21 5 9 14 6 5 92 238 269 558 990 967 1136 1107 972 319 201 134 150 122 46 36 104 82 61 47 3 4 8 0 0 0 0 0 0 0 0 0 0 0 0
889 715 276 199 210 81 27 60 45 9 34 84 93 5 0 0 23 46 28 41 4 5 0 0 0 0 0 0 0 8 6 15 70 179 273 201 96 20 9 1 0 0 0 0 0 0 0 0 2 2 1 0 0 0 0 0 0 0 0 0 0 0 0
875 592 265 140 251 204 82 46 16 10 15 35 1 0 0 16 37 5 0 0 0 0 0 0 0 0 0 0 0 0 0 0 0 4 22 13 0 0 0 0 0 0 0 0 0 0 0 0 0 0 0 0 0 0 0 0 0 0 0 0 0 0 0
748 508 211 215 92 62 45 6 0 1 28 2 0 0 0 0 0 0 0 0 0 0 0 0 0 0 0 0 0 0 0 0 0 0 0 0 0 0 0 0 0 0 0 0 0 0 0 0 0 0 0 0 3 0 0 0 0 0 0 0 0 0 0
709 679 488 268 68 39 13 0 0 0 0 0 0 0 0 0 0 0 0 0 0 0 0 0 0 0 0 0 0 0 0 0 0 0 0 0 0 0 0 0 0 0 0 0 0 0 0 0 0 0 0 0 3 13 3 9 0 0 0 0 0 0 0
698 883 838 528 343 58 0 0 0 0 0 0 0 0 0 0 0 0 0 0 0 0 0 0 0 0 0 0 0 0 0 0 0 0 0 0 0 0 0 0 0 0 0 0 0 0 0 0 0 0 0 0 0 10 12 4 0 0 0 0 0 0 0
885 1067 968 466 378 52 0 0 0 0 0 0 0 0 0 0 0 0 0 0 0 0 0 0 0 0 0 0 0 0 0 0 0 0 0 0 0 0 0 0 0 0 0 0 0 0 0 0 0 0 0 0 0 1 0 0 0 0 0 0 0 0 0
705 801 774 642 462 58 0 0 0 0 0 0 0 0 0 0 0 0 0 0 0 0 0 0 0 0 0 0 0 0 0 0 0 0 0 0 0 0 0 0 0 0 0 0 0 0 0 0 0 0 0 0 0 0 0 0 0 0 0 0 0 0 0
607 876 672 796 573 97 0 0 1 0 0 0 0 0 0 0 0 0 0 0 0 0 0 0 0 0 0 0 0 0 0 0 0 0 0 0 0 0 0 0 0 0 0 0 0 0 0 0 0 0 0 0 0 0 0 0 0 0 0 0 0 0 0
744 842 781 773 705 178 0 10 28 9 61 0 0 0 0 0 0 0 0 0 0 0 0 0 0 0 0 0 0 0 0 0 0 0 0 0 0 0 0 0 0 0 0 0 0 0 0 0 0 0 0 0 0 0 0 0 2 0 0 0 0 0 0
882 960 984 764 1107 573 184 187 40 95 63 64 0 0 0 0 0 0 0 0 0 0 0 0 0 0 0 0 0 0 0 0 0 0 0 0 0 0 0 0 0 0 0 0 0 0 0 0 0 0 0 0 0 0 0 0 0 1 1 0 0 0 0
1042 987 957 1034 1292 852 375 297 158 1 46 93 166 36 0 0 0 0 0 0 0 0 0 0 0 0 0 0 0 0 0 0 0 0 0 0 0 0 0 0 0 0 0 0 0 0 0 0 2 1 2 0 0 0 0 0 0 0 3 8 4 0 0
1093 966 895 778 727 1095 815 276 327 270 113 2 44 175 38 0 0 0 0 0 0 0 0 0 0 0 0 0 0 0 0 0 0 0 2 0 0 0 0 6 2 0 0 15 0 0 0 0 0 0 3 1 3 0 2 0 0 2 0 3 2 2 1
1021 987 837 841 933 926 1062 725 439 263 266 242 19 7 36 37 2 0 0 0 0 0 0 0 0 0 0 0 0 0 7 8 0 7 4 3 0 0 8 19 39 4 0 30 53 44 9 0 0 0 0 0 0 0 0 2 3 2 3 0 3 3 2
1224 1176 1241 1082 945 1150 1130 1006 777 407 315 339 274 120 8 35 62 52 8 0 0 0 0 0 0 0 0 0 9 40 55 92 103 118 138 48 34 28 17 12 38 72 24 22 79 35 6 12 1 0 0 0 0 0 0 5 1 1 6 6 1 2 6
1336 1240 1248 1098 1236 938 1081 1013 906 682 430 221 420 304 145 34 108 92 27 22 8 9 19 2 1 10 2 19 137 183 226 223 261 277 302 295 410 370 227 220 186 197 155 32 1 60 664 8 327 5 6 0 0 0 0 0 2 3 4 5 3 6 4
1113 1240 1276 1396 810 1115 1065 1195 1060 929 664 413 335 27 12 206 148 148 84 69 98 202 266 312 691 70 133 388 592 598 656 632 567 722 699 633 745 575 676 487 568 300 24 0 0 0 0 0 0 0 13 8 0 0 0 2 9 0 0 0 2 3 0
1193 1070 1268 1268 925 975 672 964 1040 1122 1073 933 589 576 124 666 562 452 331 421 450 809 803 723 517 466 528 561 773 830 915 995 858 859 941 969 938 903 729 675 664 413 166 46 33 122 0 0 0 0 0 0 7 68 0 1 8 0 0 2 1 0 0
1084 1108 995 1069 960 879 1022 1005 1017 1135 1243 1278 992 864 821 766 799 827 797 725 822 1234 1458 1048 796 552 604 666 852 1120 1135 978 1114 1108 1002 1050 1038 1038 687 308 109 200 336 328 162 1 23 0 0 0 0 0 0 0 0 0 0 0 0 0 0 1 1
1235 1195 1399 1161 980 1192 970 1275 1271 1186 880 1264 1014 842 1138 820 883 1051 1214 1006 986 1209 1460 810 687 516 562 645 628 792 806 996 956 935 872 842 903 1123 824 533 556 523 469 156 244 146 58 134 9 0 0 0 0 0 0 0 0 0 0 0 0 0 0
412 716 1064 1336 1341 1358 1346 1297 1470 1422 1381 911 1032 675 701 858 1053 769 625 954 869 850 647 798 338 2 8 138 0 100 573 747 796 671 676 707 1074 1052 1112 1175 724 580 400 225 220 331 200 135 162 179 168 137 110 10 0 0 24 0 0 0 0 0 0
59 144 265 464 816 1130 1337 1440 1468 1385 1308 1333 920 888 648 746 972 836 985 696 596 436 568 604 786 587 196 11 6 8 8 714 823 919 1100 1033 1009 846 704 787 524 336 561 234 192 283 127 126 146 129 59 0 0 0 0 0 0 0 0 0 0 0 0
0 0 63 281 329 368 586 960 1449 1466 1429 1370 1287 1191 914 742 607 721 705 628 609 494 322 446 620 664 498 245 40 20 61 834 867 828 327 614 645 627 551 579 375 343 292 335 226 167 164 107 91 0 0 0 0 0 0 0 0 0 0 0 0 0 0
0 0 0 0 20 162 327 527 794 1195 1251 1241 1165 1131 992 815 697 571 458 736 474 561 574 503 570 587 491 371 309 91 36 792 544 296 379 30 44 69 46 3 148 139 397 131 143 103 142 120 106 0 0 0 0 0 0 0 0 0 0 0 0 0 0
0 0 0 0 0 7 92 250 400 635 908 1044 1034 948 932 906 1016 1074 982 601 463 383 186 197 529 525 416 327 229 118 59 20 470 117 15 22 40 17 18 0 0 168 353 100 90 174 157 70 4 0 0 0 0 0 0 0 0 0 0 0 0 0 0
0 0 0 0 1 25 85 128 156 322 476 487 466 755 740 894 1110 987 1172 836 531 460 468 457 573 503 341 211 145 239 193 39 44 26 32 20 30 15 0 0 0 49 1 4 73 79 0 0 10 1 0 1 0 0 0 0 0 0 0 0 0 0 0
0 0 0 0 0 0 7 34 110 354 443 400 335 370 580 781 969 999 972 884 846 585 382 356 583 475 200 131 142 219 124 64 168 37 42 0 0 0 0 0 0 0 0 0 0 0 0 0 0 0 0 0 0 1 0 0 0 0 0 0 0 0 0
0 0 0 0 0 0 0 2 18 93 314 248 160 78 246 649 785 917 1044 1152 1137 984 350 394 601 484 262 178 258 150 252 51 137 18 11 5 1 0 0 0 0 0 0 0 0 0 0 0 0 0 0 0 0 0 0 0 0 0 0 0 0 0 0
0 0 0 0 0 0 5 17 32 55 98 245 159 85 63 419 542 797 1016 887 956 828 662 515 384 204 123 307 232 17 2 15 21 15 0 4 0 0 0 0 0 0 0 0 0 0 0 0 0 0 0 0 0 0 0 0 0 0 0 0 0 0 0
0 0 0 0 0 0 2 11 24 45 111 254 241 109 95 155 515 651 633 615 834 709 536 390 243 136 364 192 177 190 0 218 0 257 0 0 0 0 0 0 0 0 0 0 0 0 0 0 0 0 0 0 0 0 0 0 0 0 0 0 0 0 0
0 0 0 0 0 0 0 0 2 12 75 139 159 138 145 263 431 656 307 547 702 757 364 356 357 317 238 231 277 210 0 0 19 2 42 5 0 0 0 0 0 0 0 0 0 0 0 0 0 0 0 0 0 0 0 0 0 0 0 0 0 0 0

ECMWFFLT1_con_mucape_030.txt.gz
CAPE
1653 1091 1120 754 503 515 522 520 905 956 666 368 863 631 827 636 794 887 709 680 815 624 610 823 1354 1425 1350 917 1332 1241 1061 881 926 689 254 666 690 1108 1167 1184 1179 833 813 972 534 727 54 16 1 0 0 0 2 1 0 0 1 6 6 0 0 0 0
934 1100 513 189 387 460 372 464 866 624 824 920 315 220 430 402 577 584 761 696 592 734 402 540 887 911 1064 1283 1151 1457 1875 1570 1172 545 635 872 650 884 705 771 821 883 940 985 1054 1004 653 0 0 1 4 4 2 1 0 0 0 0 0 0 0 0 0
1062 653 336 522 446 484 749 818 576 620 349 343 890 659 702 331 586 724 570 516 663 271 412 664 911 1504 1422 1318 1496 1512 1565 1367 1602 794 869 622 632 837 585 748 616 554 543 582 783 698 267 494 25 0 4 6 1 0 0 0 0 0 0 0 0 0 0
1117 927 565 423 464 548 459 406 794 689 668 579 447 771 290 121 535 637 602 402 454 662 442 362 516 514 929 1273 1464 1479 1212 1296 1134 968 907 756 481 559 697 578 348 396 283 405 531 578 605 431 0 1 0 0 0 0 0 0 0 0 0 0 0 0 0
966 822 592 559 506 468 575 846 866 936 499 560 806 538 374 176 585 608 512 595 590 509 413 687 560 478 607 782 1152 1284 1330 891 1242 922 1031 1059 1046 692 681 580 438 277 326 434 570 882 527 449 24 4 2 0 0 0 0 8 0 0 0 0 0 0 0
1026 774 776 698 590 576 691 571 289 499 283 523 750 343 168 172 185 878 725 692 557 373 458 60 58 276 454 504 612 847 878 839 1042 1052 1038 1165 935 943 732 616 421 468 551 782 454 541 547 202 124 0 0 0 0 0 0 0 0 0 0 0 0 0 0
1176 841 664 554 450 498 649 302 541 442 594 687 380 350 138 271 335 119 280 357 264 85 7 4 270 189 380 140 247 382 628 851 848 908 1132 1000 1074 954 904 651 644 566 291 376 420 135 130 204 133 17 0 0 0 0 0 0 0 0 0 0 0 0 0
1080 778 670 593 516 542 344 266 783 346 579 450 252 217 152 169 310 413 325 155 0 0 0 7 119 80 31 5 72 416 362 341 541 673 699 481 288 232 163 255 66 223 190 178 135 45 92 102 156 28 0 0 0 0 0 0 0 0 0 0 0 0 0
932 884 642 549 682 790 385 689 286 676 476 176 71 43 205 302 102 18 0 0 10 0 0 3 47 0 12 25 1 19 11 122 320 86 0 0 0 0 0 1 0 0 0 0 0 0 16 64 95 5 0 0 6 9 1 0 0 0 0 0 0 0 0
749 771 534 597 594 580 584 286 408 505 185 77 37 72 48 82 40 0 0 0 0 8 0 0 0 0 0 0 0 0 0 0 0 0 0 0 0 0 0 0 0 0 0 0 0 0 5 10 10 307 42 22 16 0 0 0 0 0 0 0 0 0 0
1226 721 541 394 308 404 267 290 395 248 101 41 25 8 10 0 0 0 0 0 0 0 0 0 0 0 0 0 0 0 0 0 0 0 0 0 10 27 8 1 1 3 4 0 3 0 0 0 0 0 8 6 6 14 2 0 0 0 0 0 0 0 0
857 660 482 232 242 273 142 132 134 261 54 1 11 12 0 0 0 0 0 0 0 0 0 0 0 0 0 0 0 0 0 0 0 0 0 0 1 14 7 1 5 10 67 62 52 42 31 104 50 0 2 0 15 26 0 0 0 0 0 0 0 0 0
562 678 634 514 447 232 38 7 84 103 51 0 0 0 0 0 0 0 0 0 0 0 0 0 0 0 0 0 0 0 0 0 0 0 0 0 0 0 0 0 0 9 22 0 0 0 0 0 6 2 0 2 1 4 0 0 0 0 0 0 0 0 0
870 824 767 568 635 203 12 15 92 52 0 0 0 0 0 0 0 0 0 0 0 0 0 0 0 0 0 0 0 0 0 0 0 0 0 0 0 0 0 0 0 0 0 0 0 0 0 0 1 0 0 0 1 4 1 0 0 0 0 0 0 0 0
1021 742 777 590 654 218 2 14 125 0 0 0 0 0 0 0 0 0 0 0 0 0 0 0 0 0 0 0 0 0 0 0 0 0 0 0 0 0 3 0 0 3 5 1 2 0 0 0 0 0 0 0 0 0 0 0 0 0 0 0 0 0 0
941 1012 970 810 688 65 24 47 51 82 35 0 0 0 0 0 0 0 0 0 0 0 0 0 0 0 0 0 0 0 0 0 0 0 0 0 0 0 0 0 0 0 2 2 0 0 0 0 1 0 0 0 0 0 0 0 0 0 0 0 0 0 0
931 807 1013 813 864 223 104 134 80 112 76 0 0 2 0 0 0 0 0 0 0 0 0 0 0 0 0 0 0 0 0 0 0 0 0 0 0 0 0 0 0 0 0 0 1 0 0 0 0 0 0 0 0 0 0 7 0 0 0 0 0 0 0
829 979 987 758 851 364 240 260 173 69 260 72 2 3 0 0 0 0 0 0 0 0 0 0 0 0 0 0 0 0 0 0 0 0 0 0 0 0 0 0 0 0 0 3 0 0 0 1 21 2 1 0 0 0 0 0 0 0 25 21 0 0 0
726 947 942 1120 1169 708 583 274 257 138 146 60 139 54 0 0 0 0 0 0 0 0 0 0 0 0 0 0 0 0 0 0 0 0 2 0 1 19 2 9 2 0 7 7 0 67 0 1 31 7 50 0 0 44 54 0 0 0 0 0 0 0 0
1077 1064 979 1031 1256 1063 830 698 383 227 131 101 250 206 141 0 1 0 0 0 0 0 0 0 0 2 0 0 0 6 23 7 40 84 10 1 0 25 8 57 18 12 29 19 101 99 50 35 42 0 30 77 0 1 2 2 4 0 0 0 0 3 0
827 794 946 967 1083 1061 1096 955 539 372 241 154 70 66 127 50 30 2 4 0 0 0 0 0 0 0 0 65 76 57 225 31 31 179 68 45 21 40 56 96 79 67 26 140 128 63 10 63 11 9 6 2 0 36 0 37 0 0 0 0 0 0 0
1112 841 1024 828 1112 1208 1128 1078 865 610 690 486 522 133 42 15 60 17 64 21 12 6 3 0 10 1 2 10 249 125 325 178 248 173 208 104 159 83 25 130 66 38 131 35 80 126 103 24 134 40 70 41 0 0 0 0 23 23 1 0 0 3 1
863 1043 1274 985 906 1128 999 994 871 691 784 510 483 329 333 193 95 150 114 128 87 231 100 190 62 0 3 34 156 236 345 359 276 286 260 232 300 218 429 177 64 68 0 0 0 0 0 0 0 0 0 0 0 0 0 0 0 0 0 0 0 0 0
1053 1125 997 1207 1123 995 1042 996 1021 928 1079 1032 633 638 442 351 303 240 168 186 301 277 133 56 0 0 0 0 248 464 467 512 450 469 513 474 660 565 166 285 246 1 0 0 0 0 0 0 0 0 0 0 0 8 6 10 27 7 0 0 0 0 0
913 1096 1142 1074 1159 1060 1046 927 841 806 868 854 476 474 934 833 828 359 380 272 240 0 0 550 169 0 0 3 308 952 957 809 832 786 820 681 802 637 576 445 322 227 100 42 1 0 0 0 0 0 0 0 0 0 0 0 0 0 0 0 0 0 0
895 952 900 925 891 1075 937 688 728 869 822 675 721 650 884 1166 684 557 421 421 16 263 27 328 381 547 118 365 479 704 1077 952 938 942 876 862 559 406 632 493 365 241 344 101 47 37 0 0 0 0 0 0 0 0 0 0 0 0 0 0 0 0 0
312 620 1029 937 1140 1082 1126 1078 1156 945 680 882 885 850 974 943 637 599 558 449 404 329 162 378 124 205 479 512 511 581 808 1012 1038 934 1005 781 583 415 443 478 142 395 388 218 226 212 55 0 0 0 0 0 0 0 50 61 0 0 0 0 0 0 0
0 1 116 377 790 918 1097 1246 1316 1172 902 866 921 1091 1003 854 951 750 711 603 545 522 348 370 455 484 551 620 580 552 675 723 772 721 578 200 210 350 269 64 42 217 439 19 6 91 116 0 0 0 0 0 0 100 131 136 58 0 0 0 0 0 0
0 0 0 38 185 321 623 1084 1096 1235 1163 1007 1027 1134 1145 959 834 778 841 751 504 394 393 525 492 441 604 597 478 490 582 612 498 441 370 222 253 437 285 197 337 589 396 102 37 51 2 0 0 71 6 0 112 86 69 0 0 0 0 0 0 0 0
0 0 0 4 5 37 149 419 683 853 1074 1150 1086 1066 986 852 819 925 823 757 685 584 540 630 617 444 515 687 581 450 346 318 155 74 153 66 340 450 434 559 417 391 436 217 178 62 2 3 0 0 0 0 0 11 75 62 0 0 0 0 0 0 0
0 0 0 0 0 36 84 102 151 315 510 715 826 825 776 942 1049 1020 898 717 548 618 511 454 512 583 577 509 656 694 628 526 367 219 62 147 106 253 61 433 242 275 374 87 133 10 164 149 144 73 0 0 0 0 0 0 0 0 0 0 0 0 0
0 0 0 0 0 1 10 26 28 43 158 226 289 422 360 403 531 783 946 785 680 740 738 694 565 532 547 560 558 598 600 558 350 248 197 132 4 16 33 103 67 212 189 63 39 5 114 127 131 12 0 0 0 0 0 0 0 0 0 0 0 0 0
0 0 0 0 0 0 0 0 0 1 1 3 31 107 174 205 318 354 618 843 747 732 674 675 687 582 365 369 497 595 608 561 352 258 182 56 100 18 0 0 0 73 17 37 77 138 150 115 16 4 4 2 0 0 0 0 0 0 0 0 0 0 0
0 0 0 0 0 0 0 0 0 0 0 0 5 45 122 128 90 229 550 944 632 582 636 633 615 590 502 521 596 601 564 509 341 260 148 50 27 32 45 16 5 37 64 96 65 49 0 0 0 0 0 0 0 0 0 0 0 0 0 0 0 0 0
0 0 0 0 0 0 0 0 0 0 0 0 1 18 70 60 31 24 265 641 948 628 585 617 564 606 640 640 638 567 454 405 230 233 26 74 30 52 3 1 1 0 0 0 0 0 0 0 0 0 0 0 0 0 0 0 0 0 0 0 0 0 0
0 0 0 0 0 0 0 0 0 0 0 0 0 0 24 73 71 34 212 889 788 570 470 438 661 634 572 508 545 496 280 207 252 0 0 3 26 19 27 12 0 0 0 0 0 0 0 0 0 0 0 0 0 0 0 0 0 0 0 0 0 0 0
0 0 0 0 0 0 0 0 0 0 0 0 0 0 8 30 53 42 89 460 434 359 420 295 421 494 500 507 499 434 275 148 0 0 6 2 0 0 0 0 0 0 0 0 0 0 0 0 0 0 0 0 0 0 0 0 0 0 0 0 0 0 0

ECMWFFLT1_con_mucape_033.txt.gz
CAPE
478 148 95 0 2 34 363 379 142 0 2 112 124 161 262 283 539 804 857 926 866 968 1064 1241 1219 1143 1054 1023 1116 933 897 812 705 511 642 706 788 779 831 833 380 373 361 30 39 0 0 0 0 0 0 0 0 0 0 0 0 0 0 0 0 0 0
454 50 0 0 0 2 18 51 59 20 11 5 0 114 87 145 197 156 296 141 328 831 905 838 845 947 794 728 757 833 930 617 675 572 501 684 823 784 734 729 557 509 565 542 156 0 0 0 0 0 0 0 0 0 0 0 0 0 0 0 0 0 0
533 336 54 0 0 0 59 131 2 0 0 8 10 42 3 98 361 181 112 140 406 650 628 836 936 759 639 539 816 847 934 811 730 487 395 672 741 836 747 618 546 460 444 158 34 0 0 0 0 0 0 1 1 1 0 0 0 0 0 0 0 0 0
603 402 236 32 10 102 6 17 0 0 18 15 58 26 12 78 194 175 51 50 33 204 238 730 530 545 631 704 881 666 883 727 580 618 471 374 413 713 767 586 532 433 375 21 35 6 0 0 0 2 0 1 3 0 0 0 0 0 0 0 0 0 0
609 160 2 4 57 47 0 52 80 21 4 22 2 0 0 87 40 23 24 0 2 8 18 92 75 645 804 1081 1031 956 854 727 748 641 490 470 395 308 474 507 586 529 0 26 33 22 0 2 2 2 6 5 0 0 0 0 0 0 0 0 0 0 0
109 15 9 12 37 32 20 146 114 2 36 70 24 1 0 10 68 41 29 0 0 0 0 0 300 449 592 805 801 762 815 788 715 585 294 372 178 94 44 39 136 500 406 404 414 96 31 0 1 5 4 0 0 0 0 0 0 0 0 0 0 0 0
157 77 46 13 32 8 85 194 90 2 44 34 0 0 1 0 173 121 16 0 0 0 0 0 0 320 480 585 654 703 660 664 766 722 593 514 344 87 55 74 103 78 306 393 422 222 156 10 0 0 0 0 0 0 0 0 0 0 0 0 0 0 0
284 221 99 60 40 19 49 3 29 8 33 3 0 3 0 11 35 0 0 0 0 0 0 0 0 0 298 500 460 466 530 645 741 717 638 612 537 308 61 22 72 10 373 339 292 208 171 8 0 0 0 0 0 0 0 0 0 0 0 0 0 0 0
317 94 103 47 85 4 7 108 120 12 0 0 0 0 8 0 0 0 0 0 0 0 0 0 0 0 0 152 326 418 378 345 192 168 151 211 523 414 21 1 27 40 8 189 194 71 63 0 0 0 0 0 0 0 0 0 0 0 0 0 0 0 0
274 97 56 119 37 20 64 4 0 0 0 0 0 0 0 0 0 0 0 0 0 0 0 0 0 0 0 0 0 0 0 0 0 0 0 0 0 0 0 0 0 0 0 0 0 26 40 49 79 2 0 0 0 0 0 0 0 0 0 0 0 0 0
269 44 68 60 12 0 2 0 0 0 0 0 0 0 0 0 0 0 0 0 0 0 0 0 0 0 0 0 0 0 0 0 0 0 0 0 0 0 0 0 0 0 0 0 0 0 0 0 0 0 0 0 0 0 0 0 0 0 0 0 0 0 0
213 20 3 0 0 0 0 0 0 0 0 0 0 0 0 0 0 0 0 0 0 0 0 0 0 0 0 0 0 0 0 0 0 0 0 0 0 0 0 0 0 0 0 0 0 0 0 0 0 0 0 0 0 0 0 0 0 0 0 0 0 0 0
345 0 0 0 0 0 0 0 0 0 0 0 0 0 0 0 0 0 0 0 0 0 0 0 0 0 0 0 0 0 0 0 0 0 0 0 0 0 0 0 0 0 0 0 0 0 0 0 0 0 0 0 0 0 0 0 0 0 0 0 0 0 0
344 0 0 0 0 0 0 0 0 0 0 0 0 0 0 0 0 0 0 0 0 0 0 0 0 0 0 0 0 0 0 0 0 0 0 0 0 0 0 0 0 0 0 0 0 0 0 0 0 0 0 0 0 0 0 0 0 0 0 0 0 0 0
236 59 27 16 0 0 0 0 0 0 0 0 0 0 0 0 0 0 0 0 0 0 0 0 0 0 0 0 0 0 0 0 0 0 0 0 0 0 0 0 0 0 0 0 0 0 0 0 0 0 0 0 0 0 0 0 0 0 0 0 0 0 0
523 252 44 96 0 0 0 0 0 0 0 0 0 0 0 0 0 0 0 0 0 0 0 0 0 0 0 0 0 0 0 0 0 0 0 0 0 0 0 0 0 0 0 0 0 0 0 0 0 0 0 0 0 0 0 0 0 0 0 0 0 0 0
685 391 172 308 135 0 0 0 0 0 0 0 0 0 0 0 0 0 0 0 0 0 0 0 0 0 0 0 0 0 0 0 0 0 0 0 0 0 0 0 0 0 0 0 0 0 0 0 0 0 0 0 0 0 0 0 0 0 0 0 0 0 0
607 712 370 480 186 215 69 0 0 0 0 0 0 0 0 0 0 0 0 0 0 0 0 0 0 0 0 0 0 0 0 0 0 0 0 0 0 0 0 0 0 0 0 0 0 0 0 0 0 0 0 0 0 0 0 0 0 0 0 0 0 0 0
462 734 651 452 223 273 245 119 12 1 0 0 0 0 0 0 0 0 0 0 0 0 0 0 0 0 0 0 0 0 0 0 0 0 0 0 0 0 0 0 0 0 0 0 0 0 0 0 0 0 0 0 0 0 0 0 0 0 0 0 0 0 0
290 437 846 926 425 356 315 208 146 143 58 1 8 0 0 0 0 0 0 0 0 0 0 0 0 0 0 0 0 0 0 0 0 0 0 0 0 0 0 0 0 0 0 0 0 0 0 0 0 0 0 0 0 0 0 0 0 0 0 0 0 0 0
326 405 530 535 703 716 412 308 278 264 218 172 21 0 0 0 0 0 0 0 0 0 0 0 0 0 0 0 0 0 0 0 0 0 0 0 0 0 0 0 0 0 0 0 0 0 0 0 0 0 0 0 0 0 0 0 0 0 0 0 0 0 0
441 358 585 708 842 801 839 552 428 364 254 248 0 0 0 0 0 0 0 0 0 0 0 0 0 0 0 0 0 0 0 0 0 0 0 0 0 0 0 0 0 0 0 18 0 0 0 0 0 0 0 0 0 0 0 0 0 0 0 0 0 0 0
575 449 550 745 885 813 735 599 554 463 499 221 0 0 0 0 0 0 0 0 0 0 0 0 0 0 0 0 0 0 0 0 0 0 0 0 0 0 0 0 6 183 27 0 0 0 0 0 0 0 0 0 0 0 0 0 0 0 0 0 0 0 0
583 644 703 618 727 769 679 797 721 617 631 431 148 147 419 122 53 8 0 0 0 0 0 0 0 0 0 0 0 0 0 0 0 0 0 0 0 0 0 0 0 0 0 0 0 0 0 0 0 0 0 0 0 0 0 0 0 0 0 0 0 0 0
540 685 757 639 643 752 785 828 769 560 598 526 420 86 639 567 264 9 0 0 0 0 0 0 0 0 0 0 0 0 0 0 0 0 0 0 0 0 0 0 0 0 0 0 0 0 0 0 0 0 0 0 0 0 0 0 0 0 0 0 0 0 0
393 431 421 380 422 421 480 623 789 715 632 579 518 524 592 798 669 459 358 0 0 0 0 0 0 0 0 0 0 0 61 15 6 3 0 0 167 0 0 0 0 0 0 0 0 0 0 0 0 0 0 0 0 0 0 0 0 0 0 0 0 0 0
32 97 289 227 350 552 667 806 828 682 632 579 592 614 649 717 658 562 462 249 0 0 0 0 0 0 0 0 0 0 396 649 498 120 0 0 140 308 0 0 0 0 0 0 0 0 0 0 1 1 0 0 0 0 0 0 0 0 0 0 0 0 0
0 0 0 0 4 22 368 724 815 862 803 772 790 722 711 760 756 724 622 528 472 416 70 0 0 0 0 0 0 0 301 469 672 677 596 518 425 276 0 235 372 427 408 325 287 16 0 0 0 1 3 1 0 0 1 0 0 0 0 6 0 0 0
0 0 0 0 0 0 0 6 375 851 810 819 801 776 850 917 908 833 760 681 670 608 600 545 468 314 258 0 0 0 0 221 472 573 559 675 605 388 113 118 289 324 369 342 60 0 0 0 0 11 1 25 0 0 0 0 0 0 0 0 0 0 0
0 0 0 0 0 0 0 0 0 11 429 775 788 788 780 910 981 954 871 790 730 694 666 580 469 382 259 0 0 0 0 0 0 323 481 513 402 390 395 115 0 216 0 0 0 0 0 0 0 61 36 0 0 2 0 0 0 158 104 94 0 0 0
0 0 0 0 0 0 0 0 0 0 0 0 8 449 875 887 938 921 859 805 723 679 664 634 574 452 362 390 346 134 0 0 0 0 279 430 426 391 266 4 202 0 0 0 0 0 98 0 26 48 63 114 2 2 155 0 29 7 0 0 0 0 0
0 0 0 0 0 0 0 0 0 0 0 0 0 0 0 372 809 892 854 847 805 713 650 653 628 606 580 552 535 523 497 448 160 144 0 118 0 0 0 237 328 53 3 15 92 276 188 151 154 113 84 0 11 0 0 0 0 0 0 0 0 0 0
0 0 0 0 0 0 0 0 0 0 0 0 0 0 0 0 0 164 779 874 875 819 761 685 657 625 584 539 491 443 428 441 474 438 423 400 366 297 93 0 0 0 0 326 340 294 284 219 192 190 1 0 0 0 0 0 0 0 0 0 0 0 0
0 0 0 0 0 0 0 0 0 0 0 0 0 0 0 0 0 0 0 125 670 830 796 749 673 615 600 589 546 509 483 454 453 455 449 482 462 406 347 225 0 0 128 309 331 327 252 204 189 148 125 2 0 0 0 0 0 0 0 0 0 0 0
0 0 0 0 0 0 0 0 0 0 0 0 0 0 0 0 0 0 0 0 168 531 695 733 690 680 692 664 638 590 518 466 390 0 0 424 432 367 328 285 230 0 279 228 259 186 174 153 140 131 113 0 0 0 0 0 0 0 0 0 0 0 0
0 0 0 0 0 0 0 0 0 0 0 0 0 0 0 0 0 0 0 0 0 150 521 711 686 693 696 669 605 550 462 428 384 302 0 372 356 105 338 220 15 102 58 62 59 106 79 154 171 76 0 0 0 0 0 0 0 0 0 0 0 0 0
0 0 0 0 0 0 0 0 0 0 0 0 0 0 0 0 0 0 0 0 0 84 460 641 641 623 605 546 474 464 478 450 478 486 497 374 315 258 31 1 28 58 24 60 97 82 108 183 170 0 0 0 0 0 0 0 0 0 0 0 0 0 0

ECMWFFLT1_con_mucape_036.txt.gz
CAPE
17 291 456 554 465 364 340 357 239 388 625 835 800 851 814 693 667 658 712 826 787 692 884 1007 959 876 903 836 942 1078 1062 736 560 525 556 452 394 702 750 519 247 301 10 0 0 0 0 0 0 0 0 0 0 0 0 268 270 2 0 0 0 0 0
51 329 437 414 395 343 407 382 314 226 72 114 403 431 467 489 529 564 634 687 707 772 949 962 974 920 957 962 982 1008 955 732 618 582 444 524 464 736 580 358 229 16 145 0 0 0 0 0 0 0 0 0 0 36 148 220 131 0 0 0 0 0 0
1 38 291 403 373 387 404 324 0 0 221 0 0 0 1 148 0 204 225 310 526 633 797 795 847 894 900 694 823 915 788 776 627 548 472 607 646 723 488 324 338 78 0 0 0 0 0 0 0 0 0 0 0 6 40 85 14 0 0 0 0 0 0
0 143 351 406 364 238 217 134 0 0 206 62 0 0 0 0 3 1 71 364 401 550 615 655 634 620 452 530 640 678 752 723 559 586 423 650 731 726 528 318 316 99 0 0 0 0 0 0 0 0 0 0 0 0 36 39 0 0 0 0 0 0 0
0 60 123 10 0 2 0 208 172 83 164 139 0 0 100 156 0 0 0 205 423 508 472 432 397 372 447 443 520 582 732 668 624 453 321 516 724 772 634 381 115 0 0 0 0 0 0 0 0 0 0 0 0 0 0 0 0 0 0 0 0 0 0
193 0 0 0 0 0 0 95 224 169 9 9 0 0 0 0 0 0 0 0 0 195 0 0 383 470 539 710 655 577 633 555 449 415 363 446 517 618 727 500 320 212 0 0 0 0 0 0 0 0 0 2 0 0 0 0 0 0 0 0 0 0 0
361 326 0 0 0 0 0 0 0 0 0 0 0 0 1 10 2 0 0 0 0 0 0 0 348 636 742 754 707 679 625 456 404 398 366 345 336 359 672 626 491 334 0 0 0 0 0 0 0 0 0 3 0 0 0 0 0 0 0 0 0 0 0
624 487 0 0 72 124 0 0 0 0 0 0 0 0 0 0 0 0 0 0 0 0 0 0 0 358 573 615 618 520 492 520 526 436 327 273 222 250 375 450 532 400 0 11 0 2 0 0 0 0 0 0 0 0 0 0 0 0 0 0 0 0 0
448 0 0 1 0 0 0 232 78 0 0 0 0 0 0 0 0 0 0 0 0 0 0 0 129 358 402 468 464 419 431 480 524 406 281 217 6 0 0 140 434 483 254 179 123 0 34 0 0 0 0 0 0 0 0 0 0 0 0 0 0 0 0
140 0 0 4 0 0 255 77 0 0 0 0 0 0 0 0 0 0 0 0 0 0 0 0 0 0 184 352 370 404 467 542 541 500 415 370 300 164 0 0 155 330 320 224 173 43 0 0 0 0 0 0 0 0 0 0 0 0 0 0 0 0 0
296 260 0 0 0 0 0 0 0 0 0 0 0 0 0 0 0 0 0 0 0 0 0 0 0 0 0 0 92 91 0 0 0 0 0 45 229 92 0 0 0 156 281 259 0 0 0 0 0 0 0 0 0 0 0 0 0 0 0 0 0 0 0
415 108 0 115 40 0 0 0 0 0 0 0 0 0 0 0 0 0 0 0 0 0 0 0 0 0 0 0 0 0 0 0 0 0 0 0 0 0 0 0 0 0 144 174 0 0 0 19 0 0 0 0 0 0 0 0 0 0 0 0 0 0 0
345 0 0 0 0 0 0 0 0 0 0 0 0 0 0 0 0 0 0 0 0 0 0 0 0 0 0 0 0 0 0 0 0 0 0 0 0 0 0 0 0 24 0 0 16 0 0 32 0 0 0 0 0 0 0 0 0 0 0 0 0 0 0
315 0 0 0 0 0 0 0 0 0 0 0 0 0 0 0 0 0 0 0 0 0 0 0 0 0 0 0 0 0 0 0 0 0 0 0 0 0 0 0 0 0 0 0 0 0 0 0 0 0 0 0 0 0 0 0 0 0 0 0 0 0 0
348 153 0 0 0 0 0 0 0 0 0 0 0 0 0 0 0 0 0 0 0 0 0 0 0 0 0 0 0 0 0 0 0 0 0 0 0 0 0 0 0 0 0 0 0 0 0 0 0 0 0 0 0 0 0 0 0 0 0 0 0 0 0
460 318 250 274 81 0 0 0 0 0 0 0 0 0 0 0 0 0 0 0 0 0 0 0 0 0 0 0 0 0 0 0 0 0 0 0 0 0 0 0 0 0 0 0 0 0 0 0 0 0 0 0 0 0 0 0 0 0 0 0 0 0 0
170 372 343 308 0 20 4 0 0 0 0 0 0 0 0 0 0 0 0 0 0 0 0 0 0 0 0 0 0 0 0 0 0 0 0 0 0 0 0 0 0 0 0 0 0 0 0 0 0 0 0 0 0 0 0 0 0 0 0 0 0 0 0
45 10 4 72 98 116 137 108 0 0 0 0 0 0 0 0 0 0 0 0 0 0 0 0 0 0 0 0 0 0 0 0 0 0 0 0 0 0 0 0 0 0 0 0 0 0 0 0 0 0 0 0 0 0 0 0 0 0 0 0 0 0 0
124 32 0 0 0 141 173 132 71 0 0 0 0 0 0 0 0 0 0 0 0 0 0 0 0 0 0 0 0 0 0 0 0 0 0 0 0 0 0 0 0 0 0 0 0 0 0 0 0 0 0 0 0 0 0 0 0 0 0 0 0 0 0
273 214 313 117 7 105 132 134 108 0 0 0 0 0 0 0 0 0 0 0 0 0 0 0 0 0 0 0 0 0 0 0 0 0 0 0 0 0 0 0 0 0 0 0 0 0 0 0 0 0 0 0 0 0 0 0 0 0 0 0 0 0 0
297 129 86 0 10 180 132 91 4 47 0 0 0 0 0 0 0 0 0 0 0 0 0 0 0 0 0 0 0 0 0 0 0 0 0 0 0 0 0 0 0 0 0 0 0 0 0 0 0 0 0 0 0 0 0 0 0 0 0 0 0 0 0
367 385 300 269 0 189 139 67 5 0 18 68 0 0 0 0 0 0 0 0 0 0 0 0 0 0 0 0 0 0 0 0 0 0 0 0 0 0 0 0 0 0 0 0 0 0 0 0 0 0 0 0 0 0 0 0 0 0 0 0 0 0 0
310 330 398 372 203 276 210 202 97 0 119 122 0 0 0 0 0 0 0 0 0 0 0 0 0 0 0 0 0 0 0 0 0 0 0 0 0 0 0 0 0 0 0 0 0 0 0 0 0 0 0 0 0 0 0 0 0 0 0 0 0 0 0
102 299 237 252 45 334 441 284 386 399 212 166 118 0 0 0 0 0 0 0 0 0 0 0 0 0 0 0 0 0 0 0 0 0 0 0 0 0 0 0 0 0 0 0 0 0 0 0 0 0 0 0 0 0 0 0 0 0 0 0 0 0 0
316 338 296 352 419 260 361 420 377 296 476 387 140 194 0 0 0 0 0 0 0 0 0 0 0 0 0 0 0 0 0 0 0 0 0 0 0 0 0 0 0 0 0 0 0 0 0 0 0 0 0 0 0 0 0 0 0 0 0 0 0 0 0
66 66 9 48 108 0 17 262 398 365 539 532 479 393 554 554 363 26 17 0 0 0 0 0 0 0 0 0 0 0 0 0 0 0 0 0 0 0 0 0 0 0 0 0 0 0 0 0 0 0 0 0 0 0 0 0 0 0 0 0 0 0 0
8 3 33 116 175 233 271 283 341 152 285 357 434 490 511 551 557 532 493 433 290 187 0 0 0 0 0 0 0 0 0 0 0 0 0 0 0 0 0 0 0 0 0 0 0 0 0 0 0 0 0 0 0 0 1 2 4 4 6 5 3 0 0
0 0 0 0 0 0 130 279 363 413 330 249 321 322 414 394 602 687 720 670 631 581 505 400 120 57 0 0 0 0 0 0 0 0 0 0 0 0 0 0 0 0 0 0 0 0 0 0 0 0 0 0 0 0 2 4 7 5 6 3 0 0 0
5 4 3 0 0 0 0 0 132 277 358 395 446 527 490 538 663 684 648 740 763 751 758 744 694 604 477 270 0 0 0 0 430 316 0 0 0 0 0 0 0 0 0 0 0 0 0 0 0 192 243 46 0 3 10 5 6 6 4 2 1 22 0
0 0 0 0 0 0 0 0 0 0 0 0 2 0 0 138 142 401 747 839 825 824 805 795 766 756 724 675 602 469 314 86 0 445 628 624 208 123 0 0 17 0 63 78 267 205 0 120 262 0 2 85 0 0 3 9 3 0 1 2 0 0 0
0 0 0 0 0 0 0 0 0 0 0 0 0 0 0 0 0 0 68 522 815 858 793 752 727 721 729 721 681 572 514 445 392 307 0 532 661 736 734 417 0 0 3 0 431 472 477 453 202 0 0 0 0 0 3 0 1 0 0 0 0 0 38
2 0 0 0 0 0 0 0 0 0 0 0 0 0 0 0 0 0 0 0 0 251 522 657 705 707 692 644 609 600 557 461 346 125 0 0 82 346 392 378 375 251 157 140 0 0 266 250 180 315 251 92 50 4 0 0 18 2 5 4 24 112 50
0 0 0 0 0 0 0 0 0 0 0 0 0 0 0 0 0 0 0 0 0 0 0 0 18 313 533 684 672 633 578 513 477 480 460 456 449 416 378 314 365 434 517 600 469 408 319 370 50 0 0 5 4 7 10 0 1 2 0 1 4 0 0
0 0 0 0 0 0 0 0 0 1 1 0 0 0 0 0 0 0 0 0 0 0 0 0 0 0 0 192 485 642 632 564 541 540 528 503 498 533 539 499 485 478 427 398 372 350 296 148 0 0 0 0 0 32 50 29 0 0 0 0 0 0 0
0 0 0 0 0 0 0 0 0 0 0 0 0 0 0 0 0 0 0 0 0 0 0 0 0 0 0 0 0 355 559 620 578 526 490 432 423 452 462 487 526 557 554 529 519 439 103 254 164 0 0 8 36 8 0 8 3 0 0 0 4 3 0
0 0 0 0 0 0 0 0 0 0 0 0 0 0 0 0 0 0 0 0 0 0 0 0 0 0 0 0 0 0 321 674 659 604 500 383 321 366 372 371 401 446 503 513 457 401 32 0 3 55 0 4 8 0 8 0 0 0 0 0 0 0 0
0 0 0 0 0 0 0 0 0 0 0 0 0 0 0 0 0 0 0 0 0 0 0 0 0 0 0 0 0 0 213 671 817 742 609 499 423 315 50 150 313 313 370 419 386 311 226 45 54 0 0 1 4 0 0 0 0 0 0 0 0 0 0

ECMWFFLT1_con_mucape_039.txt.gz
CAPE
602 708 746 710 664 647 524 406 554 740 744 704 669 640 616 621 656 664 588 496 596 647 581 631 579 583 756 792 744 832 792 539 440 411 428 395 64 4 424 622 580 384 13 0 0 0 80 236 157 186 214 241 208 247 345 340 279 192 0 0 0 0 0
655 707 697 638 531 453 298 216 299 588 738 706 624 622 670 651 658 651 573 548 541 544 618 840 789 687 714 662 725 805 745 722 581 429 429 425 83 10 530 448 484 221 0 0 0 0 0 0 35 153 133 129 150 167 323 259 1 0 0 0 0 0 0
653 560 533 446 392 327 278 229 310 437 570 631 582 549 480 459 422 452 508 620 681 585 654 872 910 816 796 747 718 837 821 833 581 457 421 428 437 452 558 377 246 0 0 0 0 0 0 0 0 4 51 28 138 154 231 81 0 0 0 0 0 0 0
262 302 460 431 288 296 305 264 111 40 190 105 58 0 44 50 53 54 136 396 575 624 764 824 829 815 824 842 799 799 828 758 598 462 438 346 374 525 514 383 111 0 0 0 0 0 0 0 0 0 44 4 70 110 160 40 0 0 0 0 0 0 0
142 388 493 351 301 355 322 170 0 0 0 0 0 0 0 0 0 0 205 137 222 517 599 576 570 584 720 613 503 665 721 637 595 424 387 331 418 582 572 420 150 0 0 0 0 0 0 0 0 0 0 0 33 103 91 88 0 2 0 0 0 0 0
212 481 452 335 344 390 206 0 0 0 0 0 0 0 0 0 0 0 112 353 394 489 532 509 467 409 376 364 483 588 559 605 541 465 414 337 447 637 624 431 305 173 0 0 0 0 0 0 0 0 0 0 0 5 87 0 0 3 6 0 0 0 0
224 333 334 358 372 197 0 0 0 0 0 0 0 0 0 0 0 0 0 146 419 408 268 52 72 177 376 415 480 454 481 594 525 446 361 263 502 672 646 482 5 280 252 0 0 0 0 0 0 0 0 0 8 64 0 0 0 0 0 0 0 0 0
0 214 337 270 0 0 0 0 0 0 0 0 0 0 0 0 0 0 0 0 123 250 247 335 442 549 623 689 626 540 543 492 384 315 287 275 446 633 557 474 342 53 0 0 0 0 0 0 0 0 0 0 0 0 0 0 0 0 0 0 0 0 0
0 0 0 0 0 0 0 0 0 0 0 0 0 0 0 0 0 0 0 0 0 80 98 269 370 481 596 611 566 569 462 376 328 290 313 265 278 300 427 526 120 129 0 0 0 0 0 0 0 0 0 0 0 0 0 0 0 0 0 0 0 0 0
42 306 342 97 72 157 0 0 0 0 0 0 0 0 0 0 0 0 0 0 0 0 0 95 251 338 419 486 472 404 330 362 385 343 257 181 143 156 216 487 483 373 183 0 0 0 0 0 0 0 0 0 0 0 0 0 0 0 0 0 0 0 0
481 543 292 95 181 60 0 0 0 0 0 0 0 0 0 0 0 0 0 0 0 0 0 0 0 0 90 329 259 160 295 378 426 320 263 178 120 0 0 64 350 412 303 0 0 0 0 0 0 0 0 0 0 0 0 0 0 0 0 0 0 0 0
657 335 0 0 1 0 0 0 0 0 0 0 0 0 0 0 0 0 0 0 0 0 0 0 0 0 0 0 0 216 82 0 0 0 0 121 169 55 0 0 312 474 98 0 0 0 0 0 0 0 0 0 0 0 0 0 0 0 0 0 0 0 0
459 196 32 0 0 0 0 0 0 0 0 0 0 0 0 0 0 0 0 0 0 0 0 0 0 0 0 0 0 0 0 0 0 0 0 0 0 0 0 0 128 433 325 97 0 0 0 0 0 0 0 0 0 0 0 0 0 0 0 0 0 0 0
358 347 281 0 0 0 0 0 0 0 0 0 0 0 0 0 0 0 0 0 0 0 0 0 0 0 0 0 0 0 0 0 0 0 0 0 0 0 0 0 0 271 358 237 0 0 0 0 0 0 0 0 0 0 0 0 0 0 0 0 0 0 0
380 390 13 0 0 0 0 0 0 0 0 0 0 0 0 0 0 0 0 0 0 0 0 0 0 0 0 0 0 0 0 0 0 0 0 0 0 0 0 0 0 231 324 250 0 0 0 0 0 0 0 0 0 0 0 0 0 0 0 0 0 0 0
0 0 0 0 0 0 0 0 0 0 0 0 0 0 0 0 0 0 0 0 0 0 0 0 0 0 0 0 0 0 0 0 0 0 0 0 0 0 0 0 0 0 124 159 0 0 0 0 78 0 0 0 0 0 0 0 0 0 0 0 0 0 0
0 0 0 0 0 0 0 0 0 0 0 0 0 0 0 0 0 0 0 0 0 0 0 0 0 0 0 0 0 0 0 0 0 0 0 0 0 0 0 0 0 0 0 0 0 0 0 0 0 195 0 0 0 0 0 0 0 0 0 0 0 0 0
5 0 0 75 53 0 0 0 0 0 0 0 0 0 0 0 0 0 0 0 0 0 0 0 0 0 0 0 0 0 0 0 0 0 0 0 0 0 0 0 0 0 0 0 0 0 0 0 0 0 0 0 0 0 0 0 0 0 0 0 0 0 0
4 1 131 286 118 0 0 0 0 0 0 0 0 0 0 0 0 0 0 0 0 0 0 0 0 0 0 0 0 0 0 0 0 0 0 0 0 0 0 0 0 0 0 0 0 0 0 0 0 0 0 0 0 0 0 0 0 0 0 0 0 0 0
1 111 175 206 22 0 0 0 0 0 0 0 0 0 0 0 0 0 0 0 0 0 0 0 0 0 0 0 0 0 0 0 0 0 0 0 0 0 0 0 0 0 0 0 0 0 0 0 0 0 0 0 0 0 0 0 0 0 0 0 0 0 0
67 102 23 113 34 0 0 0 0 0 0 0 0 0 0 0 0 0 0 0 0 0 0 0 0 0 0 0 0 0 0 0 0 0 0 0 0 0 0 0 0 0 0 0 0 0 0 0 0 0 0 0 0 0 0 0 0 0 0 0 0 0 0
150 186 158 157 23 0 0 0 0 0 0 0 0 0 0 0 0 0 0 0 0 0 0 0 0 0 0 0 0 0 0 0 0 0 0 0 0 0 0 0 0 0 0 0 0 0 0 0 0 0 0 0 0 0 0 0 0 0 0 0 0 0 0
75 200 157 0 84 0 0 0 0 0 0 0 0 0 0 0 0 0 0 0 0 0 0 0 0 0 0 0 0 0 0 0 0 0 0 0 0 0 0 0 0 0 0 0 0 0 0 0 0 0 0 0 0 0 0 0 0 0 0 0 0 0 0
159 0 0 122 9 0 0 0 0 0 0 0 0 0 0 0 0 0 0 0 0 0 0 0 0 0 0 0 0 0 0 0 0 0 0 0 0 0 0 0 0 0 0 0 0 0 0 0 0 0 0 0 0 0 0 0 0 0 0 0 0 0 0
15 0 0 0 0 0 0 0 0 0 0 0 0 0 0 0 0 0 0 0 0 0 0 0 0 0 0 0 0 0 0 0 0 0 0 0 0 0 0 0 0 0 0 0 0 0 0 0 0 0 0 0 0 0 0 0 0 0 0 0 0 0 0
10 0 49 144 10 0 0 0 284 117 0 0 0 0 0 0 275 85 0 0 0 0 0 0 0 0 0 0 0 0 0 0 0 0 0 0 0 0 0 0 0 0 0 0 0 0 0 0 0 0 0 0 0 0 0 0 0 0 0 0 0 0 0
0 0 0 0 119 195 0 0 257 268 22 119 0 0 0 0 208 327 359 319 176 0 0 0 0 0 0 0 0 0 0 0 0 0 0 0 0 0 0 0 0 0 0 0 0 0 0 0 0 0 0 0 0 0 0 0 0 0 0 0 0 0 0
0 0 0 0 0 0 1 0 0 100 0 0 0 0 0 233 297 326 422 494 505 523 440 313 64 0 0 0 0 0 0 0 0 0 0 0 0 0 0 0 0 0 0 0 0 0 0 0 0 0 0 0 0 0 0 0 0 0 0 0 0 0 1
0 0 0 0 1 0 0 0 132 4 0 0 0 0 179 296 361 363 406 418 430 538 588 588 576 555 523 406 288 36 0 0 0 0 0 0 0 0 0 0 0 0 0 0 0 0 0 0 0 0 0 0 0 0 0 0 0 0 0 0 0 0 3
0 0 0 0 1 0 0 142 124 170 40 157 178 213 260 336 315 330 360 360 347 415 446 491 538 568 582 591 595 584 552 490 312 117 5 0 0 0 0 0 0 0 0 0 0 0 0 0 0 0 0 0 0 0 0 0 0 0 0 0 0 0 0
0 0 0 0 0 0 0 0 16 115 17 126 131 150 170 177 80 30 30 34 37 46 302 331 385 428 421 424 432 485 523 525 531 492 445 394 291 59 361 7 0 0 0 0 0 0 0 0 0 0 0 0 0 0 0 0 0 0 145 0 0 0 0
4 6 7 12 3 11 12 14 9 1 0 0 0 0 0 0 0 0 0 0 0 0 0 0 0 0 165 190 198 202 304 298 331 464 513 501 435 160 375 479 575 572 524 443 193 162 132 0 0 0 0 0 0 0 3 8 18 114 2 0 3 0 9
2 1 0 0 0 0 0 0 0 0 0 0 0 0 0 0 0 0 0 0 0 0 0 0 0 0 0 0 0 0 0 0 0 0 304 403 451 431 398 396 379 469 532 603 645 639 583 458 312 0 0 0 0 0 0 0 3 0 4 0 2 2 20
0 0 0 0 0 0 0 0 0 0 0 0 0 0 0 0 0 0 0 0 0 0 0 0 0 0 0 0 0 0 0 0 0 0 0 0 147 422 496 487 496 503 479 449 470 484 466 463 368 34 6 0 0 11 0 0 0 32 34 6 0 0 7
0 0 0 0 0 0 0 0 0 0 0 0 0 0 0 0 0 0 0 0 0 0 0 0 0 0 0 0 0 0 0 0 0 0 0 0 0 0 358 536 532 543 521 465 469 484 506 506 501 324 189 201 92 108 0 110 112 95 36 6 3 0 1
0 0 0 0 0 0 0 0 0 0 0 0 0 0 0 0 0 0 0 0 0 0 0 0 0 0 0 0 0 0 0 0 0 0 0 0 0 0 0 365 497 473 503 484 475 447 436 465 487 461 452 368 306 323 226 162 0 0 7 2 1 1 0
0 0 0 0 0 0 0 0 0 0 0 0 0 0 0 0 0 0 0 0 0 0 0 0 0 0 0 0 0 0 0 0 0 0 0 0 0 0 7 175 490 566 463 333 281 222 242 222 320 375 407 410 384 322 310 284 235 98 3 3 4 3 1

ECMWFFLT1_con_mucape_042.txt.gz
CAPE
664 732 859 864 791 701 611 581 666 764 728 684 712 693 664 520 496 514 498 453 433 428 439 434 392 360 331 190 207 326 293 50 0 4 213 42 70 3 0 55 56 375 0 0 0 1 12 186 132 220 22 11 79 10 42 52 82 0 0 0 0 0 0
693 768 803 779 718 630 538 540 622 664 676 632 665 588 530 479 486 524 511 470 468 539 559 537 426 396 398 434 466 511 595 541 387 320 290 266 178 1 0 0 390 395 0 0 0 0 3 68 124 83 0 108 74 36 55 16 0 0 0 0 0 0 0
653 702 735 733 661 586 476 387 548 655 668 624 556 567 547 530 550 545 535 443 408 521 563 524 558 504 525 608 678 692 721 777 522 447 351 332 350 310 255 261 279 306 0 0 0 0 68 0 89 0 0 0 27 0 0 0 0 0 0 0 0 0 0
566 644 716 698 594 359 176 241 481 647 638 524 421 436 88 448 424 408 451 427 438 468 472 499 673 698 617 667 703 696 765 753 676 584 464 369 371 349 338 329 299 308 8 0 0 0 0 0 18 14 20 0 0 0 0 0 0 0 0 0 0 0 0
550 663 712 564 440 298 213 256 376 490 518 408 69 0 0 0 0 0 0 233 432 543 506 519 664 778 774 745 715 675 742 758 791 714 492 410 360 360 355 412 394 315 83 0 0 0 0 0 0 0 0 0 0 0 0 0 0 0 0 0 0 0 0
603 701 590 393 315 270 220 13 17 267 269 19 0 0 0 0 0 0 0 0 21 430 476 526 609 627 682 747 795 772 757 796 794 685 525 428 343 334 376 428 446 350 0 0 0 0 0 0 0 0 0 0 0 0 0 0 0 0 0 0 0 0 0
688 477 419 347 252 263 150 0 0 0 0 0 0 0 0 0 0 0 0 0 0 0 230 351 233 258 371 559 596 527 631 739 696 630 509 421 346 357 368 479 454 338 133 0 0 0 0 0 0 0 0 0 0 0 0 0 0 0 0 0 0 0 0
424 291 421 353 258 286 144 0 0 0 0 0 0 0 0 0 0 0 0 0 0 0 0 0 0 209 294 287 372 433 547 550 569 572 483 418 289 335 450 544 545 373 43 20 0 0 0 0 4 0 0 1 0 0 0 0 0 0 0 0 0 0 0
231 342 470 356 300 324 91 0 0 0 0 0 0 0 0 0 0 0 0 0 0 0 0 0 153 333 435 535 527 454 435 457 485 405 326 268 263 320 562 659 620 465 295 204 0 0 0 0 13 0 2 0 0 0 0 0 0 0 0 0 0 0 0
244 406 471 367 361 135 0 0 0 0 0 0 0 0 0 0 0 0 0 0 0 0 0 0 0 130 330 427 440 452 423 352 302 284 266 275 249 277 526 663 634 510 331 0 0 0 0 0 0 0 0 0 0 0 0 0 0 0 0 0 0 0 0
238 310 350 376 240 46 118 44 0 0 0 0 0 0 0 0 0 0 0 0 0 0 0 0 0 0 192 265 300 264 241 273 290 297 260 204 167 164 219 314 456 521 370 0 0 0 0 0 0 0 0 0 0 0 0 0 0 0 0 0 0 0 0
75 147 338 274 49 0 0 0 0 0 0 0 0 0 0 0 0 0 0 0 0 0 0 0 0 0 0 131 206 193 196 229 272 310 257 183 126 72 118 183 416 533 458 340 65 0 0 0 0 0 0 0 0 0 0 0 0 0 0 0 0 0 0
164 386 439 62 0 0 0 0 0 0 0 0 0 0 0 0 0 0 0 0 0 0 0 0 0 0 0 0 0 0 0 0 0 0 50 148 145 70 13 50 258 463 511 403 209 17 22 0 0 0 0 0 0 0 0 0 0 0 0 0 0 0 0
413 594 162 0 0 0 0 0 0 0 0 0 0 0 0 0 0 0 0 0 0 0 0 0 0 0 0 0 0 0 0 0 0 0 0 0 0 133 0 0 37 363 498 402 92 0 0 0 0 0 0 0 0 0 0 0 0 0 0 0 0 0 0
628 618 0 0 0 0 0 0 0 0 0 0 0 0 0 0 0 0 0 0 0 0 0 0 0 0 0 0 0 0 0 0 0 0 0 0 0 0 0 0 0 410 545 212 107 54 4 0 0 0 0 0 0 0 0 0 0 0 0 0 0 0 0
666 452 0 0 0 0 0 0 0 0 0 0 0 0 0 0 0 0 0 0 0 0 0 0 0 0 0 0 0 0 0 0 0 0 0 0 0 0 0 0 0 377 568 300 178 73 33 10 0 0 0 0 0 0 0 0 0 0 0 0 0 0 0
469 17 0 0 0 0 0 0 0 0 0 0 0 0 0 0 0 0 0 0 0 0 0 0 0 0 0 0 0 0 0 0 0 0 0 0 0 0 0 0 0 274 474 414 255 0 0 0 0 0 0 0 0 0 0 0 0 0 0 0 0 0 0
354 116 0 0 0 0 0 0 0 0 0 0 0 0 0 0 0 0 0 0 0 0 0 0 0 0 0 0 0 0 0 0 0 0 0 0 0 0 0 0 0 238 405 437 327 0 0 0 0 0 0 0 0 0 0 0 0 0 0 0 0 0 0
386 0 0 0 0 0 0 0 0 0 0 0 0 0 0 0 0 0 0 0 0 0 0 0 0 0 0 0 0 0 0 0 0 0 0 0 0 0 0 0 0 0 291 420 436 288 0 0 0 0 0 0 0 0 0 0 0 0 0 0 0 0 0
110 0 0 0 0 0 0 0 0 0 0 0 0 0 0 0 0 0 0 0 0 0 0 0 0 0 0 0 0 0 0 0 0 0 0 0 0 0 0 0 0 0 0 0 55 0 0 0 0 0 0 36 0 0 0 0 0 0 0 0 0 0 0
223 0 0 25 91 0 0 0 0 0 0 0 0 0 0 0 0 0 0 0 0 0 0 0 0 0 0 0 0 0 0 0 0 0 0 0 0 0 0 0 0 0 0 0 0 0 0 0 0 0 0 0 0 0 0 0 0 0 0 0 0 0 0
176 152 0 0 0 0 0 0 0 0 0 0 0 0 0 0 0 0 0 0 0 0 0 0 0 0 0 0 0 0 0 0 0 0 0 0 0 0 0 0 0 0 0 0 0 0 0 0 0 0 0 0 0 0 0 0 0 0 0 0 0 0 0
98 32 1 2 0 0 0 0 0 0 0 0 0 0 0 0 0 0 0 0 0 0 0 0 0 0 0 0 0 0 0 0 0 0 0 0 0 0 0 0 0 0 0 0 0 0 0 0 0 0 0 0 0 0 0 0 0 0 0 0 0 0 0
15 15 11 0 0 0 5 1 0 0 0 0 0 0 0 0 0 0 0 0 0 0 0 0 0 0 0 0 0 0 0 0 0 0 0 0 0 0 0 0 0 0 0 0 0 0 0 0 0 0 0 0 0 0 0 0 0 0 0 0 0 0 0
0 0 0 1 16 0 0 0 0 0 0 0 0 0 0 0 0 0 0 0 0 0 0 0 0 0 0 0 0 0 0 0 0 0 0 0 0 0 0 0 0 0 0 0 0 0 0 0 0 0 0 0 0 0 0 0 0 0 0 0 0 0 0
0 0 104 103 126 92 8 0 0 0 0 0 0 0 0 0 0 0 0 0 0 0 0 0 0 0 0 0 0 0 0 0 0 0 0 0 0 0 0 0 0 0 0 0 0 0 0 0 0 0 0 0 0 0 0 0 0 0 0 0 0 0 0
0 0 13 0 119 49 0 0 0 0 0 0 0 0 0 0 0 0 0 3 143 0 0 0 0 0 0 0 0 0 0 0 0 0 0 0 0 0 0 0 0 0 0 0 0 0 0 0 0 0 0 0 0 0 0 0 0 0 0 0 0 0 0
2 2 40 95 75 0 0 0 0 0 0 0 0 0 0 0 0 0 0 53 198 226 242 268 265 230 111 36 31 0 0 0 0 0 0 0 0 0 0 0 0 0 0 0 0 0 0 0 0 0 0 0 0 0 0 0 0 0 0 0 0 0 0
9 17 16 47 98 92 0 0 0 0 0 0 0 0 0 0 0 0 0 0 101 148 177 218 266 287 307 315 312 305 304 272 193 166 0 0 0 0 0 0 0 0 0 0 0 0 0 0 0 0 0 0 0 0 0 0 0 0 0 0 0 0 0
0 0 1 1 2 5 0 0 0 0 0 0 0 0 0 0 0 0 0 126 199 191 124 131 197 227 263 278 279 299 310 335 378 409 430 411 382 320 170 64 0 0 0 0 0 0 0 0 0 0 0 0 0 0 0 0 0 0 2 0 0 0 0
0 0 0 0 1 0 0 0 0 0 0 0 0 0 0 0 0 0 0 31 35 37 0 0 35 34 33 201 242 261 274 262 264 254 269 315 345 371 401 423 406 372 301 312 267 218 33 0 0 0 0 0 0 0 0 0 0 0 0 0 0 0 60
1 1 0 1 3 2 0 0 0 0 0 0 0 0 0 0 0 0 0 0 0 0 0 0 0 0 0 0 0 96 220 244 259 280 290 292 280 254 279 321 352 376 395 405 394 343 319 300 321 412 416 205 114 0 0 0 0 50 28 27 28 0 0
7 6 2 0 2 11 10 4 0 0 0 0 0 0 0 0 0 0 0 0 0 0 0 0 0 0 0 0 0 0 0 1 0 0 7 8 9 9 9 82 193 286 346 384 399 382 339 294 264 14 158 0 11 302 72 107 3 0 0 12 13 2 5
7 10 9 7 5 2 0 4 3 3 2 1 0 0 0 0 0 0 0 0 0 0 0 0 0 0 0 0 0 0 0 1 1 1 1 0 0 0 0 0 0 0 117 250 365 429 414 389 366 348 323 333 334 321 271 241 132 0 42 43 16 4 0
0 0 0 0 0 0 0 0 1 1 0 0 0 0 0 0 0 0 0 0 0 0 0 0 0 0 0 0 0 0 0 0 0 1 2 2 2 2 1 0 0 0 0 16 198 359 419 420 394 334 317 336 330 300 307 263 218 217 222 147 42 1 0
0 0 0 0 0 0 0 0 0 0 1 0 0 0 0 0 0 1 0 0 0 0 0 0 0 0 0 0 0 0 0 0 0 0 2 2 2 3 5 4 2 2 1 0 0 237 404 383 321 291 302 318 314 272 250 267 258 238 203 162 101 66 42
0 0 0 0 0 0 0 0 0 0 0 0 0 0 0 0 0 0 0 0 0 0 0 0 0 0 0 0 0 0 0 0 0 0 1 2 2 3 4 6 2 0 0 1 0 45 350 423 381 276 242 242 273 276 233 209 203 168 225 242 231 215 147

ECMWFFLT1_con_mucape_045.txt.gz
CAPE
1158 938 1076 1185 1135 1143 1226 867 1019 1018 940 870 833 806 880 793 559 398 396 482 530 480 324 337 380 389 402 440 495 543 497 458 552 541 553 514 673 750 363 832 761 763 897 860 457 452 314 194 102 110 144 139 110 0 1 2 2 0 0 0 0 0 0
1294 1201 983 867 994 1104 1297 1177 1282 994 773 825 780 724 745 701 637 582 437 543 581 526 435 470 444 400 507 511 451 414 512 640 657 762 930 859 1029 1000 461 724 772 669 519 718 696 747 425 311 146 95 78 12 2 2 2 0 0 0 0 0 0 0 0
985 916 1006 1014 974 1098 1331 1397 1379 1307 1236 1193 912 933 602 610 681 727 637 643 613 489 628 750 778 682 590 578 500 422 600 789 842 858 922 1088 1120 906 820 891 792 616 541 505 640 682 650 557 393 139 43 9 3 2 0 0 0 0 0 0 0 0 0
1040 1044 1022 943 868 1051 1120 1268 1352 1321 1267 1228 1236 1050 653 774 699 634 697 705 692 668 707 754 928 998 986 901 794 697 610 744 812 1022 927 1030 1001 908 916 789 819 463 588 571 586 680 675 487 264 93 46 5 0 2 0 0 0 0 0 0 0 0 0
904 1004 1194 1088 1001 1040 1178 1220 1243 1148 1079 876 925 995 896 857 659 584 589 630 640 714 765 781 781 1087 1180 1060 1010 881 720 473 532 439 1035 1152 920 881 986 940 968 961 411 305 529 743 731 650 414 137 37 1 0 0 0 0 0 0 0 0 0 0 0
904 1063 1238 1152 1070 1052 991 1064 1034 1119 925 812 779 770 720 710 796 856 720 746 640 700 834 811 859 949 1255 1373 1323 1234 1128 1036 1042 1001 1142 1302 1117 1017 987 947 1072 717 298 203 387 746 891 760 551 255 28 4 0 0 0 0 0 0 0 0 0 0 0
840 948 942 901 859 903 962 1140 1161 1045 906 838 779 820 568 288 395 726 968 1128 1105 1061 857 660 716 789 865 1036 1288 1281 1245 1177 1183 1249 1341 1309 1116 988 974 958 887 774 393 276 475 618 712 726 556 287 40 6 0 0 0 0 0 0 0 0 0 0 0
626 685 688 680 661 790 921 1074 1136 1069 858 804 628 641 185 231 243 443 895 1076 1008 1063 866 860 721 853 911 887 1052 1092 1014 926 823 776 971 968 846 688 798 1038 1061 729 457 320 331 460 440 606 633 348 107 10 1 0 0 0 0 0 0 0 0 0 0
616 711 633 443 545 747 734 900 858 888 940 732 552 365 199 136 314 512 672 864 752 747 736 746 844 787 922 1072 1006 800 926 399 745 665 707 641 649 787 926 1069 920 574 421 309 214 426 355 566 638 443 272 43 1 2 0 0 0 0 0 0 0 0 0
690 658 427 328 462 554 614 710 687 625 590 583 459 357 93 78 364 600 584 642 566 548 648 766 851 878 921 1025 1039 1028 814 728 754 581 776 685 742 652 945 979 1101 893 479 292 256 330 496 632 577 496 287 154 11 0 0 0 0 0 0 0 0 0 0
665 587 383 254 321 316 324 364 359 261 398 490 419 157 107 156 325 328 617 464 404 544 583 498 560 695 804 711 813 799 835 886 832 777 751 635 593 646 867 1014 1052 557 524 275 203 177 403 502 523 510 452 480 48 0 0 0 0 0 0 0 0 0 0
594 457 412 284 316 412 319 311 318 473 420 272 207 85 85 62 136 233 445 316 288 285 330 355 342 433 528 622 614 640 533 862 874 978 819 741 702 407 578 869 847 812 489 331 183 111 172 266 465 465 348 180 108 23 0 0 0 0 0 0 0 0 0
338 402 474 323 387 496 374 336 319 380 459 258 266 158 66 40 90 123 147 143 126 127 132 93 136 183 246 286 241 212 82 201 377 754 699 668 496 671 707 686 712 646 468 358 188 16 17 94 229 178 92 41 20 36 8 0 0 0 0 0 0 0 0
251 428 447 394 524 564 430 317 316 395 179 214 89 53 21 22 21 34 40 35 45 57 41 12 9 21 3 4 1 0 0 0 0 11 160 395 430 630 562 570 687 619 513 406 208 3 1 17 36 36 10 3 0 8 1 0 0 0 0 0 0 0 0
188 226 356 294 404 312 292 257 257 122 271 23 35 5 0 1 2 4 0 0 0 0 0 0 0 0 0 21 17 0 0 0 0 1 14 48 223 378 614 531 523 471 529 466 254 40 3 0 10 16 2 1 0 0 2 0 0 0 0 0 0 0 0
222 404 397 318 338 245 266 239 118 226 108 1 0 3 0 0 0 0 0 0 0 0 0 0 0 0 0 0 1 0 0 0 0 4 3 6 5 112 366 542 545 490 512 469 127 58 14 2 15 15 6 2 1 0 0 0 0 0 0 0 0 0 0
297 523 348 317 325 190 143 127 78 115 12 0 0 0 0 0 0 0 0 0 0 0 0 0 0 0 0 0 0 0 0 0 0 0 0 0 0 0 100 441 467 520 532 276 100 140 30 26 21 15 9 4 6 0 0 0 0 0 0 0 0 0 0
390 502 234 94 52 21 22 5 0 0 0 0 0 0 0 0 0 0 0 0 0 0 0 0 0 0 0 0 0 0 0 0 0 0 0 0 0 0 0 142 262 413 635 602 294 161 113 189 21 30 29 4 0 1 0 0 0 0 0 0 0 0 0
295 188 203 8 3 0 0 0 0 0 0 0 0 0 0 0 0 0 0 0 0 0 0 0 0 0 0 0 0 0 0 0 0 0 0 0 0 0 0 0 74 273 636 858 489 372 315 473 356 272 91 35 2 2 0 0 0 0 0 0 0 0 0
77 195 248 9 19 0 0 0 0 0 0 0 0 0 0 0 0 0 0 0 0 0 0 0 0 0 0 0 0 0 0 0 0 11 1 0 0 0 0 0 2 66 492 925 865 559 368 447 559 641 443 347 6 0 0 0 0 0 0 0 0 0 0
0 0 0 0 42 66 7 0 0 0 0 0 0 0 0 0 0 0 0 0 0 0 0 0 0 0 0 0 0 0 0 0 0 0 64 11 0 0 0 0 0 0 30 148 483 436 348 378 251 467 356 327 108 6 4 0 0 0 0 38 21 0 0
0 0 0 2 16 22 22 82 56 10 0 0 0 0 0 0 0 0 0 0 0 0 0 0 0 0 0 0 0 0 0 0 0 0 0 19 5 0 0 0 0 0 0 4 0 2 12 27 38 73 104 44 96 84 75 16 1 0 0 0 0 0 0
0 1 3 9 6 10 0 0 0 0 0 0 0 0 0 0 0 0 0 0 0 0 0 0 0 0 0 0 0 0 0 0 0 4 1 12 38 10 4 0 0 0 0 0 0 0 0 0 0 17 82 1 1 4 19 11 2 2 0 0 0 0 0
0 0 0 1 3 0 0 0 0 0 0 0 0 0 0 14 3 0 0 0 0 0 1 0 0 0 0 0 0 0 0 5 0 1 16 30 41 48 43 3 65 35 0 0 0 0 0 0 0 0 0 0 0 28 49 23 11 1 0 0 0 0 0
64 30 31 11 1 1 0 0 0 0 0 0 0 0 0 0 0 3 1 0 0 1 2 0 0 0 0 0 0 0 0 0 0 5 6 12 18 31 83 118 153 145 202 306 289 48 0 0 0 0 0 0 0 0 0 86 57 30 3 0 0 0 0
3 0 0 0 0 0 0 0 0 0 0 0 0 0 0 0 0 0 0 0 0 0 0 0 0 0 0 0 0 0 0 0 0 0 0 2 19 69 121 85 133 170 70 6 0 116 259 28 0 0 0 0 0 0 0 0 0 8 63 2 0 4 1
7 4 0 0 0 4 3 2 0 0 0 0 0 0 0 0 0 0 0 0 0 0 0 0 0 0 0 0 0 0 0 0 0 0 0 0 0 2 14 22 42 115 206 123 158 296 156 252 172 11 0 0 3 0 0 0 0 0 0 0 13 13 111
0 1 0 4 9 2 0 0 0 0 0 3 0 0 0 0 0 0 0 0 0 0 0 0 0 0 0 0 0 0 0 4 118 159 63 14 4 4 5 8 10 12 36 72 99 177 152 119 90 102 103 186 195 260 37 4 0 0 0 0 2 42 91
0 0 0 2 3 5 8 0 0 0 0 0 0 0 0 0 0 0 0 0 0 0 0 0 0 0 0 0 0 0 0 0 21 119 243 156 86 93 47 56 125 158 179 160 47 0 0 15 18 11 24 60 115 127 56 69 0 0 2 14 18 65 91
9 6 6 4 16 21 22 16 9 7 6 0 0 0 0 0 0 0 0 0 0 0 0 0 0 0 0 0 0 0 0 0 0 0 0 0 0 8 58 57 198 264 353 453 72 0 0 0 0 7 37 118 173 86 7 10 0 0 0 0 0 0 0
9 9 9 10 4 2 2 2 2 1 0 0 1 0 0 0 0 0 0 0 0 0 0 0 0 0 0 0 0 0 0 0 0 0 0 0 0 1 1 0 0 63 271 460 307 0 0 0 2 132 224 235 266 181 102 57 0 0 0 0 0 0 0
0 0 0 3 0 2 2 1 1 2 1 1 1 0 0 0 0 0 0 0 0 0 0 0 0 0 0 0 0 0 0 0 0 0 0 0 0 0 0 0 0 0 107 186 192 178 0 0 6 216 279 312 314 324 308 339 1 0 0 0 0 0 0
0 0 0 0 0 0 0 0 1 1 1 0 0 0 0 0 0 0 0 0 0 0 0 0 0 0 0 0 0 0 0 0 0 0 0 0 0 0 0 0 2 0 0 0 0 0 0 0 193 236 283 372 371 315 385 242 0 0 0 0 0 0 0
8 3 0 0 0 0 0 1 1 5 7 3 0 0 0 0 0 0 0 0 0 0 0 0 0 0 0 0 0 0 0 0 0 0 0 0 0 0 0 0 0 0 0 0 0 0 0 0 0 96 284 297 360 337 241 226 235 212 197 221 203 172 143
3 6 9 7 5 0 0 4 9 11 8 5 4 2 0 0 0 0 0 0 0 0 0 0 0 0 0 0 0 0 0 0 0 0 0 0 0 0 0 0 0 0 0 0 0 0 0 0 0 0 247 323 314 278 273 220 176 185 158 128 102 0 0
0 0 0 2 2 4 6 8 8 8 8 6 5 3 1 0 0 0 0 0 0 0 0 0 0 0 0 0 0 0 0 0 0 0 0 0 0 0 0 0 0 0 0 0 0 0 0 0 0 0 58 250 296 269 197 130 109 33 19 0 0 0 0
0 0 0 0 0 0 0 0 0 0 0 0 0 0 0 0 0 0 0 0 0 0 0 0 0 0 0 0 0 0 0 0 0 0 0 0 0 0 0 0 0 0 0 0 0 0 0 0 0 0 0 70 267 308 218 154 110 31 28 40 0 0 0

ECMWFFLT1_con_mucape_048.txt.gz
CAPE
1198 1218 1288 1422 1403 1574 1715 1228 1214 1292 1096 1127 1066 1026 948 899 861 808 817 755 576 513 550 571 567 477 523 641 1024 988 1031 970 1113 937 967 974 914 982 1074 805 1123 1150 1090 887 974 582 538 372 122 28 88 182 229 93 58 41 170 108 1 0 0 0 0
1206 1226 1317 1238 1422 1416 1286 1126 1002 1002 950 1013 900 981 1074 963 866 881 819 830 758 705 613 583 576 524 809 1012 1078 1135 1163 1042 1015 782 881 940 839 920 1143 1054 1008 799 844 820 604 752 397 460 244 256 12 24 40 20 163 12 3 2 0 0 0 0 0
1059 1160 1250 1297 1207 1147 1194 1180 1003 799 810 638 676 787 597 744 797 779 829 733 855 704 730 731 820 837 1095 1129 1133 1162 1074 1095 1073 908 872 796 729 903 795 691 739 780 674 689 671 743 467 329 361 352 274 194 14 14 12 5 4 0 0 0 0 0 0
1234 1154 1225 1134 1149 1103 1060 1056 1036 935 866 813 916 774 682 537 658 629 596 773 796 868 692 840 1018 914 1181 1190 1153 1155 1062 1080 908 817 679 980 823 933 951 844 556 598 830 230 500 778 598 466 529 500 266 72 1 4 3 2 0 0 0 0 0 0 0
1459 1299 1282 1265 1149 1069 968 1021 847 891 1023 1005 869 775 768 656 707 616 691 664 664 805 738 763 877 1521 1493 1238 1139 1061 995 973 843 812 824 879 932 988 1014 999 865 968 1165 395 263 702 722 752 602 410 224 40 2 1 0 0 0 0 0 0 0 0 0
1484 1370 1386 1246 1021 1008 908 826 802 738 775 644 683 653 822 661 529 590 695 568 553 664 650 605 894 884 1415 1405 1373 1085 972 811 845 880 855 891 887 859 820 883 931 667 868 853 1098 935 866 118 850 225 154 37 16 0 0 0 0 0 0 0 0 0 0
1398 1227 978 966 941 877 868 873 799 656 579 585 599 581 519 534 478 456 493 579 710 792 826 643 480 584 1316 1345 1251 1193 1008 873 871 929 970 1060 1096 1047 1056 681 1130 723 848 925 886 922 610 648 350 234 157 124 2 0 0 0 0 0 0 0 0 0 0
1301 936 933 1081 1095 945 878 812 775 614 514 410 407 484 432 449 503 506 464 651 750 738 521 443 459 557 607 601 1195 1189 1067 1023 1022 1026 1025 1048 1102 1012 1041 771 1003 686 756 1052 1078 985 1020 911 751 326 305 176 0 0 0 0 0 0 0 0 0 0 0
1360 935 926 1165 1134 1032 894 853 832 625 508 441 397 480 504 427 346 522 449 441 455 378 373 372 397 239 624 999 1358 1415 1283 1022 1275 1256 1347 1445 1433 1260 1291 981 670 769 1132 1150 1045 821 660 509 617 499 452 244 28 0 0 0 0 0 0 0 0 0 0
1722 1312 1229 1232 1106 987 886 755 763 726 525 434 452 518 500 411 360 480 368 373 364 344 330 320 315 309 597 1240 1413 1661 1590 1388 1486 1402 1672 1492 1477 1475 1189 1247 1004 1018 1251 1297 1001 908 937 693 731 566 418 116 14 0 0 0 0 0 0 0 0 0 0
1515 1068 1096 1160 1065 992 834 778 732 677 587 438 398 374 342 361 334 236 368 398 351 333 300 259 222 278 489 443 742 1034 1090 1372 1437 1386 1415 1273 1404 1409 1192 1004 654 954 1057 1183 1079 1183 1213 999 795 598 733 226 1 2 1 1 0 0 0 0 0 0 0
1492 1015 947 1002 992 991 860 840 721 625 630 542 245 256 231 302 252 171 222 329 323 295 260 245 268 298 269 239 428 405 864 920 756 987 1109 1235 1299 1367 1382 1116 936 963 1221 1262 1138 1139 1290 1125 873 891 772 412 0 0 2 3 0 0 0 0 0 0 0
1424 1068 1095 1127 968 905 734 726 681 688 698 463 318 215 228 268 206 144 114 245 243 217 164 141 248 304 283 226 245 222 448 495 472 752 629 949 626 952 1462 1341 1106 1070 1221 1074 1048 1017 1026 1009 908 612 606 198 0 0 0 0 0 0 0 0 0 0 0
1343 1198 1097 1035 963 816 672 648 738 677 583 608 428 278 160 258 173 157 144 125 106 132 76 79 215 255 210 206 143 70 99 160 120 111 125 503 348 678 890 1129 1210 1277 1248 1051 820 752 646 642 878 789 326 14 0 0 0 0 0 0 0 0 0 0 0
1384 1426 1167 939 840 724 792 752 654 585 593 587 396 202 174 194 142 79 15 90 78 48 1 0 127 241 141 152 114 50 49 49 69 70 119 90 136 396 1097 1176 1153 1257 1020 897 655 210 181 419 451 509 147 8 0 0 0 0 0 0 4 0 0 0 0
1231 1439 1352 999 688 786 721 631 588 569 650 523 414 184 135 126 70 20 3 84 77 0 0 0 28 122 148 147 121 126 54 29 22 57 115 71 45 127 501 1220 1320 1374 1175 1025 410 124 219 328 92 4 3 0 0 0 0 0 0 0 0 0 0 0 0
1346 1495 1503 980 597 733 678 577 555 554 484 375 240 117 69 97 28 0 0 10 1 0 0 0 0 0 16 47 73 81 14 0 8 10 0 0 0 101 322 1095 1394 1544 1436 1122 404 171 231 78 10 0 0 0 0 0 0 0 0 2 0 0 0 0 0
1121 905 1281 865 901 834 736 608 695 514 412 285 111 47 51 29 3 0 0 0 0 0 0 0 0 0 0 5 11 42 22 0 0 0 0 0 0 33 202 1024 1318 1559 1516 1297 605 407 95 78 1 0 0 0 0 0 1 0 0 0 0 0 0 0 0
745 796 816 1184 1230 970 707 688 554 382 196 47 3 0 0 0 0 0 0 0 0 0 0 0 0 0 0 0 0 1 16 7 0 0 0 0 0 1 72 291 1322 1612 1590 1417 599 516 230 198 10 0 0 0 0 1 4 6 1 0 0 0 0 0 0
836 869 749 913 990 698 546 536 370 156 7 0 0 0 0 0 0 0 0 0 0 0 0 0 0 0 0 0 0 0 1 7 0 0 0 0 0 0 0 153 1123 1630 1688 1540 1035 900 691 504 246 128 9 33 0 0 21 16 0 1 2 0 0 0 0
812 652 669 581 555 565 441 253 91 15 0 0 0 0 0 0 0 0 0 0 0 0 0 0 0 0 0 0 0 0 0 0 2 3 2 0 0 0 0 15 178 892 1675 1768 1622 1318 1086 823 570 525 354 357 89 11 47 16 12 4 16 32 25 29 5
446 499 471 405 292 256 176 65 1 0 0 0 0 0 0 0 0 0 0 0 0 0 0 0 0 0 0 0 0 0 0 0 0 2 6 3 0 0 0 0 13 97 1331 271 666 950 663 460 366 94 130 182 146 101 80 13 14 17 24 24 42 30 16
278 230 233 286 342 253 207 195 183 99 13 5 5 0 0 0 0 0 0 0 0 76 31 0 0 0 0 0 0 0 0 0 0 0 0 1 0 0 0 6 47 0 0 0 0 0 0 0 0 437 698 86 155 58 66 90 43 20 20 12 18 12 11
50 53 30 92 135 60 88 214 212 181 197 229 261 182 71 6 3 7 34 135 19 0 0 0 0 0 0 0 8 0 0 0 0 0 0 2 0 0 2 7 107 4 0 0 0 0 0 0 0 0 0 0 5 897 94 65 71 90 33 7 6 6 16
0 0 0 0 0 4 9 6 4 0 0 0 2 178 389 321 382 253 67 10 0 0 0 0 0 0 0 0 0 0 0 0 4 11 23 21 17 18 24 39 88 180 191 1420 433 67 0 0 0 0 0 0 0 0 0 467 468 115 72 14 0 2 2
18 3 0 0 0 0 0 1 0 0 0 0 3 30 102 167 50 4 0 0 0 0 0 0 0 0 0 0 0 66 3 0 0 2 5 8 42 52 60 54 112 109 69 102 0 10 282 202 0 0 0 0 0 0 0 0 0 44 242 69 18 13 15
3 13 14 2 0 0 0 0 1 0 0 0 2 0 13 16 2 0 0 0 0 0 0 0 0 0 0 0 0 131 176 70 58 21 6 26 21 21 23 15 16 35 81 120 37 62 92 157 544 157 24 6 21 49 0 0 0 0 0 45 123 105 85
1 8 1 0 0 0 0 0 0 0 4 5 3 3 0 0 0 0 0 0 0 0 0 0 0 0 0 0 0 17 625 766 321 424 472 572 410 350 289 183 79 24 42 45 51 337 146 80 175 238 274 298 315 283 609 429 102 27 24 9 33 123 187
0 0 0 0 2 3 0 0 0 3 0 0 0 2 0 1 2 1 0 0 0 0 0 0 0 0 0 0 0 43 149 322 421 439 657 826 779 705 712 753 612 475 484 461 184 0 5 132 304 362 248 211 205 203 324 1167 1379 366 1028 1211 490 526 995
4 1 0 0 0 2 5 0 0 0 3 3 6 11 10 3 4 2 0 0 0 0 0 0 0 0 0 0 0 0 2 6 45 127 292 206 419 498 697 776 900 889 961 912 711 295 0 0 356 528 546 531 475 422 370 652 0 0 0 0 0 0 0
0 1 4 3 4 5 1 0 0 1 0 0 0 0 0 0 1 1 3 0 0 1 0 0 0 0 0 0 0 6 6 0 9 0 20 24 58 109 240 0 0 126 586 563 556 54 0 0 350 745 898 930 912 890 779 933 269 0 0 0 0 0 0
6 6 4 3 2 3 4 5 4 2 0 0 0 0 0 0 0 2 3 1 2 3 1 2 0 0 0 0 0 0 0 0 0 0 0 0 0 0 84 43 0 0 0 0 0 0 0 0 201 786 1019 1114 1193 1255 1237 1304 1155 649 247 0 0 0 0
11 10 9 0 0 2 0 2 0 0 0 0 0 0 0 0 2 1 0 0 0 0 0 0 0 0 0 0 0 0 0 0 0 0 0 0 0 0 0 12 0 0 0 0 0 0 0 0 0 218 646 1121 1037 1145 1273 1140 1144 1164 895 494 381 162 19
1 1 4 1 0 2 2 1 3 3 2 2 0 1 1 1 0 0 0 0 0 0 0 0 0 0 0 0 0 0 0 0 0 0 0 0 0 0 0 0 0 0 0 0 0 0 0 0 0 1 39 575 888 214 438 920 1254 600 841 797 614 555 466
0 0 1 2 0 0 0 0 0 3 4 2 2 2 1 0 0 0 0 0 0 0 0 0 0 0 0 0 0 0 0 0 0 0 0 0 0 0 0 0 0 0 0 0 0 0 0 0 0 1 2 0 0 283 419 472 528 519 582 596 711 634 484
12 8 5 4 3 2 0 0 0 0 0 0 0 0 0 0 0 0 0 0 0 0 0 0 0 0 0 0 0 0 0 0 0 0 0 0 0 0 0 0 0 0 0 0 0 0 0 0 0 0 0 0 0 0 61 208 284 288 271 234 183 266 190
0 0 0 0 0 0 1 1 0 0 0 0 0 0 0 0 0 0 2 3 2 0 0 0 0 0 0 0 0 0 0 0 0 0 0 0 0 0 0 0 0 0 0 0 0 0 0 0 0 0 0 0 0 0 0 1 1 248 393 236 144 72 83